<?xml version="1.0" encoding="UTF-8"?>
<gpx version="1.1" creator="Swiss Map online 2.4.3.201302181115" xmlns="http://www.topografix.com/GPX/1/1">
  <metadata>
    <author>
      <name>Federal Office of Topography Switzerland</name>
    </author>
  </metadata>
  <trk>
    <name>Le Crêt Siviriez</name>
    <trkseg>
      <trkpt lat="46.60935498095396" lon="6.910191103742765">
        <time>2013-04-25T00:29:49.000+02:00</time>
      </trkpt>
      <trkpt lat="46.609572681212086" lon="6.91058058450159">
        <time>2013-04-25T00:29:49.000+02:00</time>
      </trkpt>
      <trkpt lat="46.609754881089316" lon="6.911074841542881">
        <time>2013-04-25T00:29:49.000+02:00</time>
      </trkpt>
      <trkpt lat="46.60977323360088" lon="6.911152983760859">
        <time>2013-04-25T00:29:49.000+02:00</time>
      </trkpt>
      <trkpt lat="46.60985503586587" lon="6.911334936726558">
        <time>2013-04-25T00:29:49.000+02:00</time>
      </trkpt>
      <trkpt lat="46.60994492931775" lon="6.9113210089995745">
        <time>2013-04-25T00:29:49.000+02:00</time>
      </trkpt>
      <trkpt lat="46.6100794379661" lon="6.911228326088012">
        <time>2013-04-25T00:29:49.000+02:00</time>
      </trkpt>
      <trkpt lat="46.610302935390685" lon="6.910925919484283">
        <time>2013-04-25T00:29:49.000+02:00</time>
      </trkpt>
      <trkpt lat="46.610436116165914" lon="6.910546068159396">
        <time>2013-04-25T00:29:49.000+02:00</time>
      </trkpt>
      <trkpt lat="46.61055070082694" lon="6.9100358596765545">
        <time>2013-04-25T00:29:49.000+02:00</time>
      </trkpt>
      <trkpt lat="46.61069208787868" lon="6.9094862263929855">
        <time>2013-04-25T00:29:49.000+02:00</time>
      </trkpt>
      <trkpt lat="46.61086993806235" lon="6.909040663831285">
        <time>2013-04-25T00:29:49.000+02:00</time>
      </trkpt>
      <trkpt lat="46.61090489028183" lon="6.908818408856866">
        <time>2013-04-25T00:29:49.000+02:00</time>
      </trkpt>
      <trkpt lat="46.61096604047251" lon="6.908426198670469">
        <time>2013-04-25T00:29:49.000+02:00</time>
      </trkpt>
      <trkpt lat="46.61100986560439" lon="6.908177748556617">
        <time>2013-04-25T00:29:49.000+02:00</time>
      </trkpt>
      <trkpt lat="46.61106244291469" lon="6.907876997251993">
        <time>2013-04-25T00:29:49.000+02:00</time>
      </trkpt>
      <trkpt lat="46.61113276735802" lon="6.9075238563420776">
        <time>2013-04-25T00:29:49.000+02:00</time>
      </trkpt>
      <trkpt lat="46.6111678380788" lon="6.907327705728484">
        <time>2013-04-25T00:29:49.000+02:00</time>
      </trkpt>
      <trkpt lat="46.61121062773805" lon="6.906857349064166">
        <time>2013-04-25T00:29:49.000+02:00</time>
      </trkpt>
      <trkpt lat="46.61127152786054" lon="6.906412921512745">
        <time>2013-04-25T00:29:49.000+02:00</time>
      </trkpt>
      <trkpt lat="46.61139581997179" lon="6.906059247176457">
        <time>2013-04-25T00:29:49.000+02:00</time>
      </trkpt>
      <trkpt lat="46.61163808607856" lon="6.90592632822521">
        <time>2013-04-25T00:29:49.000+02:00</time>
      </trkpt>
      <trkpt lat="46.611889164675944" lon="6.905754159532749">
        <time>2013-04-25T00:29:49.000+02:00</time>
      </trkpt>
      <trkpt lat="46.61205028934298" lon="6.905582873648214">
        <time>2013-04-25T00:29:49.000+02:00</time>
      </trkpt>
      <trkpt lat="46.6123466489681" lon="6.905475527161748">
        <time>2013-04-25T00:29:49.000+02:00</time>
      </trkpt>
      <trkpt lat="46.61260800207082" lon="6.905577390284419">
        <time>2013-04-25T00:29:49.000+02:00</time>
      </trkpt>
      <trkpt lat="46.612725490131986" lon="6.905693722782946">
        <time>2013-04-25T00:29:49.000+02:00</time>
      </trkpt>
      <trkpt lat="46.6127431762699" lon="6.905628277997643">
        <time>2013-04-25T00:29:49.000+02:00</time>
      </trkpt>
      <trkpt lat="46.61285112066662" lon="6.905627216787047">
        <time>2013-04-25T00:29:49.000+02:00</time>
      </trkpt>
      <trkpt lat="46.613049384237215" lon="6.905703593192696">
        <time>2013-04-25T00:29:49.000+02:00</time>
      </trkpt>
      <trkpt lat="46.613239017793575" lon="6.905858380812621">
        <time>2013-04-25T00:29:49.000+02:00</time>
      </trkpt>
      <trkpt lat="46.61330222893192" lon="6.905909976926998">
        <time>2013-04-25T00:29:49.000+02:00</time>
      </trkpt>
      <trkpt lat="46.613320341442666" lon="6.905935907605215">
        <time>2013-04-25T00:29:49.000+02:00</time>
      </trkpt>
      <trkpt lat="46.61334744931389" lon="6.9059617499211985">
        <time>2013-04-25T00:29:49.000+02:00</time>
      </trkpt>
      <trkpt lat="46.613383491663285" lon="6.905974450145092">
        <time>2013-04-25T00:29:49.000+02:00</time>
      </trkpt>
      <trkpt lat="46.613509852938286" lon="6.906064589267855">
        <time>2013-04-25T00:29:49.000+02:00</time>
      </trkpt>
      <trkpt lat="46.613527904543126" lon="6.906077466319756">
        <time>2013-04-25T00:29:49.000+02:00</time>
      </trkpt>
      <trkpt lat="46.613590932978404" lon="6.906089901587058">
        <time>2013-04-25T00:29:49.000+02:00</time>
      </trkpt>
      <trkpt lat="46.61359992834477" lon="6.906089813228329">
        <time>2013-04-25T00:29:49.000+02:00</time>
      </trkpt>
      <trkpt lat="46.61364545294554" lon="6.906206855687507">
        <time>2013-04-25T00:29:49.000+02:00</time>
      </trkpt>
      <trkpt lat="46.61369930342799" lon="6.906180218012725">
        <time>2013-04-25T00:29:49.000+02:00</time>
      </trkpt>
      <trkpt lat="46.613726289527136" lon="6.906179952980959">
        <time>2013-04-25T00:29:49.000+02:00</time>
      </trkpt>
      <trkpt lat="46.61386152430228" lon="6.9062438971088325">
        <time>2013-04-25T00:29:49.000+02:00</time>
      </trkpt>
      <trkpt lat="46.61398782451839" lon="6.906320983768174">
        <time>2013-04-25T00:29:49.000+02:00</time>
      </trkpt>
      <trkpt lat="46.61421331703812" lon="6.906449315166702">
        <time>2013-04-25T00:29:49.000+02:00</time>
      </trkpt>
      <trkpt lat="46.614348794932326" lon="6.90656547644744">
        <time>2013-04-25T00:29:49.000+02:00</time>
      </trkpt>
      <trkpt lat="46.61441224897305" lon="6.906669290411913">
        <time>2013-04-25T00:29:49.000+02:00</time>
      </trkpt>
      <trkpt lat="46.61452985748624" lon="6.9068117371998685">
        <time>2013-04-25T00:29:49.000+02:00</time>
      </trkpt>
      <trkpt lat="46.614692503423576" lon="6.9069667975822115">
        <time>2013-04-25T00:29:49.000+02:00</time>
      </trkpt>
      <trkpt lat="46.614890887595806" lon="6.90706928970916">
        <time>2013-04-25T00:29:49.000+02:00</time>
      </trkpt>
      <trkpt lat="46.61500825262854" lon="6.907159522082565">
        <time>2013-04-25T00:29:49.000+02:00</time>
      </trkpt>
      <trkpt lat="46.61517022997211" lon="6.907170988954157">
        <time>2013-04-25T00:29:49.000+02:00</time>
      </trkpt>
      <trkpt lat="46.615277809865006" lon="6.907091605566831">
        <time>2013-04-25T00:29:49.000+02:00</time>
      </trkpt>
      <trkpt lat="46.615286683717954" lon="6.907065408965798">
        <time>2013-04-25T00:29:49.000+02:00</time>
      </trkpt>
      <trkpt lat="46.615295496802965" lon="6.907026158151092">
        <time>2013-04-25T00:29:49.000+02:00</time>
      </trkpt>
      <trkpt lat="46.6154127403596" lon="6.907090282638584">
        <time>2013-04-25T00:29:49.000+02:00</time>
      </trkpt>
      <trkpt lat="46.61541267960351" lon="6.907077228405175">
        <time>2013-04-25T00:29:49.000+02:00</time>
      </trkpt>
      <trkpt lat="46.61543036653308" lon="6.907011780821596">
        <time>2013-04-25T00:29:49.000+02:00</time>
      </trkpt>
      <trkpt lat="46.615501904075074" lon="6.906919695368605">
        <time>2013-04-25T00:29:49.000+02:00</time>
      </trkpt>
      <trkpt lat="46.61551083866554" lon="6.906906552887751">
        <time>2013-04-25T00:29:49.000+02:00</time>
      </trkpt>
      <trkpt lat="46.61559131070051" lon="6.906801324640907">
        <time>2013-04-25T00:29:49.000+02:00</time>
      </trkpt>
      <trkpt lat="46.615627109792165" lon="6.906761808811152">
        <time>2013-04-25T00:29:49.000+02:00</time>
      </trkpt>
      <trkpt lat="46.61570739927126" lon="6.906617417210882">
        <time>2013-04-25T00:29:49.000+02:00</time>
      </trkpt>
      <trkpt lat="46.61580567929837" lon="6.906472848584713">
        <time>2013-04-25T00:29:49.000+02:00</time>
      </trkpt>
      <trkpt lat="46.6159038982982" lon="6.90631522508234">
        <time>2013-04-25T00:29:49.000+02:00</time>
      </trkpt>
      <trkpt lat="46.615939332102144" lon="6.906197382545507">
        <time>2013-04-25T00:29:49.000+02:00</time>
      </trkpt>
      <trkpt lat="46.615965587799046" lon="6.906040465121836">
        <time>2013-04-25T00:29:49.000+02:00</time>
      </trkpt>
      <trkpt lat="46.615973669862555" lon="6.90584456123781">
        <time>2013-04-25T00:29:49.000+02:00</time>
      </trkpt>
      <trkpt lat="46.616017428427874" lon="6.9055830316626725">
        <time>2013-04-25T00:29:49.000+02:00</time>
      </trkpt>
      <trkpt lat="46.61606161306167" lon="6.905412882380197">
        <time>2013-04-25T00:29:49.000+02:00</time>
      </trkpt>
      <trkpt lat="46.61610598033538" lon="6.90528189601553">
        <time>2013-04-25T00:29:49.000+02:00</time>
      </trkpt>
      <trkpt lat="46.61612330038713" lon="6.905138120590569">
        <time>2013-04-25T00:29:49.000+02:00</time>
      </trkpt>
      <trkpt lat="46.61614043726476" lon="6.9049551818538895">
        <time>2013-04-25T00:29:49.000+02:00</time>
      </trkpt>
      <trkpt lat="46.616148456440186" lon="6.9047462227669305">
        <time>2013-04-25T00:29:49.000+02:00</time>
      </trkpt>
      <trkpt lat="46.6161655926889" lon="6.904563283821229">
        <time>2013-04-25T00:29:49.000+02:00</time>
      </trkpt>
      <trkpt lat="46.61621871009912" lon="6.9043799901705425">
        <time>2013-04-25T00:29:49.000+02:00</time>
      </trkpt>
      <trkpt lat="46.61630768649238" lon="6.904170232556136">
        <time>2013-04-25T00:29:49.000+02:00</time>
      </trkpt>
      <trkpt lat="46.616378855107" lon="6.90399981507537">
        <time>2013-04-25T00:29:49.000+02:00</time>
      </trkpt>
      <trkpt lat="46.616432277243035" lon="6.903881792527392">
        <time>2013-04-25T00:29:49.000+02:00</time>
      </trkpt>
      <trkpt lat="46.61652143615213" lon="6.903711196756868">
        <time>2013-04-25T00:29:49.000+02:00</time>
      </trkpt>
      <trkpt lat="46.61660190523294" lon="6.903605961792853">
        <time>2013-04-25T00:29:49.000+02:00</time>
      </trkpt>
      <trkpt lat="46.616727228694565" lon="6.9034741734510865">
        <time>2013-04-25T00:29:49.000+02:00</time>
      </trkpt>
      <trkpt lat="46.61686142499356" lon="6.903316186520654">
        <time>2013-04-25T00:29:49.000+02:00</time>
      </trkpt>
      <trkpt lat="46.61698662571018" lon="6.9031582876583">
        <time>2013-04-25T00:29:49.000+02:00</time>
      </trkpt>
      <trkpt lat="46.61716530854281" lon="6.902895417583171">
        <time>2013-04-25T00:29:49.000+02:00</time>
      </trkpt>
      <trkpt lat="46.617325938777334" lon="6.902619668961448">
        <time>2013-04-25T00:29:49.000+02:00</time>
      </trkpt>
      <trkpt lat="46.61745107723986" lon="6.902448712411987">
        <time>2013-04-25T00:29:49.000+02:00</time>
      </trkpt>
      <trkpt lat="46.61751355442802" lon="6.902343651738487">
        <time>2013-04-25T00:29:49.000+02:00</time>
      </trkpt>
      <trkpt lat="46.61762094701449" lon="6.902225091033246">
        <time>2013-04-25T00:29:49.000+02:00</time>
      </trkpt>
      <trkpt lat="46.61775538688599" lon="6.9021193175665525">
        <time>2013-04-25T00:29:49.000+02:00</time>
      </trkpt>
      <trkpt lat="46.61802426633157" lon="6.901907769056131">
        <time>2013-04-25T00:29:49.000+02:00</time>
      </trkpt>
      <trkpt lat="46.6182394800628" lon="6.901762027570469">
        <time>2013-04-25T00:29:49.000+02:00</time>
      </trkpt>
      <trkpt lat="46.618427768905065" lon="6.901629607211383">
        <time>2013-04-25T00:29:49.000+02:00</time>
      </trkpt>
      <trkpt lat="46.61860712362625" lon="6.901510330058857">
        <time>2013-04-25T00:29:49.000+02:00</time>
      </trkpt>
      <trkpt lat="46.61875918508197" lon="6.901326044389844">
        <time>2013-04-25T00:29:49.000+02:00</time>
      </trkpt>
      <trkpt lat="46.61890194367735" lon="6.901076571533202">
        <time>2013-04-25T00:29:49.000+02:00</time>
      </trkpt>
      <trkpt lat="46.61894630596143" lon="6.900945574737372">
        <time>2013-04-25T00:29:49.000+02:00</time>
      </trkpt>
      <trkpt lat="46.619017162333634" lon="6.900709869225835">
        <time>2013-04-25T00:29:49.000+02:00</time>
      </trkpt>
      <trkpt lat="46.619088141241214" lon="6.9005002733221295">
        <time>2013-04-25T00:29:49.000+02:00</time>
      </trkpt>
      <trkpt lat="46.61911445061857" lon="6.900356399122317">
        <time>2013-04-25T00:29:49.000+02:00</time>
      </trkpt>
      <trkpt lat="46.61914106751023" lon="6.900277800407692">
        <time>2013-04-25T00:29:49.000+02:00</time>
      </trkpt>
      <trkpt lat="46.61922116409778" lon="6.900094224376449">
        <time>2013-04-25T00:29:49.000+02:00</time>
      </trkpt>
      <trkpt lat="46.6193283696176" lon="6.899936489954614">
        <time>2013-04-25T00:29:49.000+02:00</time>
      </trkpt>
      <trkpt lat="46.61942657956" lon="6.899778844325407">
        <time>2013-04-25T00:29:49.000+02:00</time>
      </trkpt>
      <trkpt lat="46.61955152890434" lon="6.899568708898128">
        <time>2013-04-25T00:29:49.000+02:00</time>
      </trkpt>
      <trkpt lat="46.61966779068721" lon="6.89942393824385">
        <time>2013-04-25T00:29:49.000+02:00</time>
      </trkpt>
      <trkpt lat="46.61982028030487" lon="6.899331030112957">
        <time>2013-04-25T00:29:49.000+02:00</time>
      </trkpt>
      <trkpt lat="46.619963774487616" lon="6.899238210966775">
        <time>2013-04-25T00:29:49.000+02:00</time>
      </trkpt>
      <trkpt lat="46.62017873808578" lon="6.899040232140806">
        <time>2013-04-25T00:29:49.000+02:00</time>
      </trkpt>
      <trkpt lat="46.62023246351042" lon="6.8989874733417516">
        <time>2013-04-25T00:29:49.000+02:00</time>
      </trkpt>
      <trkpt lat="46.6204123089761" lon="6.898972626893066">
        <time>2013-04-25T00:29:49.000+02:00</time>
      </trkpt>
      <trkpt lat="46.620475646561054" lon="6.8990503326922">
        <time>2013-04-25T00:29:49.000+02:00</time>
      </trkpt>
      <trkpt lat="46.62071094401278" lon="6.899348281183838">
        <time>2013-04-25T00:29:49.000+02:00</time>
      </trkpt>
      <trkpt lat="46.62095412685807" lon="6.899411142711605">
        <time>2013-04-25T00:29:49.000+02:00</time>
      </trkpt>
      <trkpt lat="46.621224295737676" lon="6.8994737363900915">
        <time>2013-04-25T00:29:49.000+02:00</time>
      </trkpt>
      <trkpt lat="46.62140407962677" lon="6.899445835614811">
        <time>2013-04-25T00:29:49.000+02:00</time>
      </trkpt>
      <trkpt lat="46.621655887997925" lon="6.899430274533355">
        <time>2013-04-25T00:29:49.000+02:00</time>
      </trkpt>
      <trkpt lat="46.62190800451619" lon="6.8994799922656185">
        <time>2013-04-25T00:29:49.000+02:00</time>
      </trkpt>
      <trkpt lat="46.6221873535529" lon="6.899581665506989">
        <time>2013-04-25T00:29:49.000+02:00</time>
      </trkpt>
      <trkpt lat="46.62234840721692" lon="6.899397272734852">
        <time>2013-04-25T00:29:49.000+02:00</time>
      </trkpt>
      <trkpt lat="46.622428872288914" lon="6.899292020019765">
        <time>2013-04-25T00:29:49.000+02:00</time>
      </trkpt>
      <trkpt lat="46.6225532656023" lon="6.898964368282204">
        <time>2013-04-25T00:29:49.000+02:00</time>
      </trkpt>
      <trkpt lat="46.622631755174694" lon="6.898441323620482">
        <time>2013-04-25T00:29:49.000+02:00</time>
      </trkpt>
      <trkpt lat="46.622693178552716" lon="6.8981142965991">
        <time>2013-04-25T00:29:49.000+02:00</time>
      </trkpt>
      <trkpt lat="46.62279014963219" lon="6.89769551779826">
        <time>2013-04-25T00:29:49.000+02:00</time>
      </trkpt>
      <trkpt lat="46.62287036574625" lon="6.897538037605558">
        <time>2013-04-25T00:29:49.000+02:00</time>
      </trkpt>
      <trkpt lat="46.62294164815398" lon="6.897393702807076">
        <time>2013-04-25T00:29:49.000+02:00</time>
      </trkpt>
      <trkpt lat="46.62321008548483" lon="6.897090717805087">
        <time>2013-04-25T00:29:49.000+02:00</time>
      </trkpt>
      <trkpt lat="46.62353286571537" lon="6.896865527349572">
        <time>2013-04-25T00:29:49.000+02:00</time>
      </trkpt>
      <trkpt lat="46.62396334192048" lon="6.896587029702581">
        <time>2013-04-25T00:29:49.000+02:00</time>
      </trkpt>
      <trkpt lat="46.62400819476984" lon="6.896560467331478">
        <time>2013-04-25T00:29:49.000+02:00</time>
      </trkpt>
      <trkpt lat="46.62417786696344" lon="6.896297631352127">
        <time>2013-04-25T00:29:49.000+02:00</time>
      </trkpt>
      <trkpt lat="46.62426645632578" lon="6.896009491445552">
        <time>2013-04-25T00:29:49.000+02:00</time>
      </trkpt>
      <trkpt lat="46.6243002659726" lon="6.895552158456898">
        <time>2013-04-25T00:29:49.000+02:00</time>
      </trkpt>
      <trkpt lat="46.624308826752355" lon="6.895460673761843">
        <time>2013-04-25T00:29:49.000+02:00</time>
      </trkpt>
      <trkpt lat="46.62439697912162" lon="6.895081137075517">
        <time>2013-04-25T00:29:49.000+02:00</time>
      </trkpt>
      <trkpt lat="46.624538791449794" lon="6.894635775423932">
        <time>2013-04-25T00:29:49.000+02:00</time>
      </trkpt>
      <trkpt lat="46.62457309340947" lon="6.89428289070619">
        <time>2013-04-25T00:29:49.000+02:00</time>
      </trkpt>
      <trkpt lat="46.62460814131764" lon="6.894086682784693">
        <time>2013-04-25T00:29:49.000+02:00</time>
      </trkpt>
      <trkpt lat="46.6245356182464" lon="6.89396989798994">
        <time>2013-04-25T00:29:49.000+02:00</time>
      </trkpt>
      <trkpt lat="46.62449951232238" lon="6.8939441467367795">
        <time>2013-04-25T00:29:49.000+02:00</time>
      </trkpt>
      <trkpt lat="46.62423740162272" lon="6.893685641269205">
        <time>2013-04-25T00:29:49.000+02:00</time>
      </trkpt>
      <trkpt lat="46.624183180341774" lon="6.893633958565753">
        <time>2013-04-25T00:29:49.000+02:00</time>
      </trkpt>
      <trkpt lat="46.623876777671626" lon="6.893519527419629">
        <time>2013-04-25T00:29:49.000+02:00</time>
      </trkpt>
      <trkpt lat="46.62366913677215" lon="6.893364933609658">
        <time>2013-04-25T00:29:49.000+02:00</time>
      </trkpt>
      <trkpt lat="46.623596363584184" lon="6.893195927041496">
        <time>2013-04-25T00:29:49.000+02:00</time>
      </trkpt>
      <trkpt lat="46.623613356552156" lon="6.892986846866778">
        <time>2013-04-25T00:29:49.000+02:00</time>
      </trkpt>
      <trkpt lat="46.62363959405288" lon="6.892829900779351">
        <time>2013-04-25T00:29:49.000+02:00</time>
      </trkpt>
      <trkpt lat="46.623674951497975" lon="6.892698976353914">
        <time>2013-04-25T00:29:49.000+02:00</time>
      </trkpt>
      <trkpt lat="46.62371005910741" lon="6.892515826882946">
        <time>2013-04-25T00:29:49.000+02:00</time>
      </trkpt>
      <trkpt lat="46.62374404216538" lon="6.892097665096793">
        <time>2013-04-25T00:29:49.000+02:00</time>
      </trkpt>
      <trkpt lat="46.62374335488087" lon="6.891954046609826">
        <time>2013-04-25T00:29:49.000+02:00</time>
      </trkpt>
      <trkpt lat="46.623669579282776" lon="6.891576142381593">
        <time>2013-04-25T00:29:49.000+02:00</time>
      </trkpt>
      <trkpt lat="46.6236401533529" lon="6.891067222925689">
        <time>2013-04-25T00:29:49.000+02:00</time>
      </trkpt>
      <trkpt lat="46.6237016182026" lon="6.890753237656954">
        <time>2013-04-25T00:29:49.000+02:00</time>
      </trkpt>
      <trkpt lat="46.62374352447044" lon="6.890113028026562">
        <time>2013-04-25T00:29:49.000+02:00</time>
      </trkpt>
      <trkpt lat="46.6237589432329" lon="6.8895775406349244">
        <time>2013-04-25T00:29:49.000+02:00</time>
      </trkpt>
      <trkpt lat="46.62378310352781" lon="6.888989736800149">
        <time>2013-04-25T00:29:49.000+02:00</time>
      </trkpt>
      <trkpt lat="46.62374441914893" lon="6.888428684101348">
        <time>2013-04-25T00:29:49.000+02:00</time>
      </trkpt>
      <trkpt lat="46.62361527484031" lon="6.8877640967366265">
        <time>2013-04-25T00:29:49.000+02:00</time>
      </trkpt>
      <trkpt lat="46.623541107257495" lon="6.887307862090429">
        <time>2013-04-25T00:29:49.000+02:00</time>
      </trkpt>
      <trkpt lat="46.62354066607615" lon="6.887216468889985">
        <time>2013-04-25T00:29:49.000+02:00</time>
      </trkpt>
      <trkpt lat="46.62351204072266" lon="6.886877283153719">
        <time>2013-04-25T00:29:49.000+02:00</time>
      </trkpt>
      <trkpt lat="46.62353795435505" lon="6.886655053548928">
        <time>2013-04-25T00:29:49.000+02:00</time>
      </trkpt>
      <trkpt lat="46.623546066218424" lon="6.886472175533975">
        <time>2013-04-25T00:29:49.000+02:00</time>
      </trkpt>
      <trkpt lat="46.62360732895044" lon="6.886119017035587">
        <time>2013-04-25T00:29:49.000+02:00</time>
      </trkpt>
      <trkpt lat="46.62372256265954" lon="6.8857653072082865">
        <time>2013-04-25T00:29:49.000+02:00</time>
      </trkpt>
      <trkpt lat="46.623865603270794" lon="6.88558105165173">
        <time>2013-04-25T00:29:49.000+02:00</time>
      </trkpt>
      <trkpt lat="46.623901394988515" lon="6.885541515738564">
        <time>2013-04-25T00:29:49.000+02:00</time>
      </trkpt>
      <trkpt lat="46.623963856570896" lon="6.885436423018205">
        <time>2013-04-25T00:29:49.000+02:00</time>
      </trkpt>
      <trkpt lat="46.624017259463756" lon="6.885318365598669">
        <time>2013-04-25T00:29:49.000+02:00</time>
      </trkpt>
      <trkpt lat="46.624060591219546" lon="6.884978442789915">
        <time>2013-04-25T00:29:49.000+02:00</time>
      </trkpt>
      <trkpt lat="46.624060084872355" lon="6.884873992437387">
        <time>2013-04-25T00:29:49.000+02:00</time>
      </trkpt>
      <trkpt lat="46.6240854246152" lon="6.884534252924584">
        <time>2013-04-25T00:29:49.000+02:00</time>
      </trkpt>
      <trkpt lat="46.62412926100293" lon="6.884298779538628">
        <time>2013-04-25T00:29:49.000+02:00</time>
      </trkpt>
      <trkpt lat="46.62418247257424" lon="6.8841415516674465">
        <time>2013-04-25T00:29:49.000+02:00</time>
      </trkpt>
      <trkpt lat="46.6242172493963" lon="6.88389311327531">
        <time>2013-04-25T00:29:49.000+02:00</time>
      </trkpt>
      <trkpt lat="46.62423352742164" lon="6.883540408106208">
        <time>2013-04-25T00:29:49.000+02:00</time>
      </trkpt>
      <trkpt lat="46.62422332621915" lon="6.883292429928978">
        <time>2013-04-25T00:29:49.000+02:00</time>
      </trkpt>
      <trkpt lat="46.62414008186968" lon="6.882823232222377">
        <time>2013-04-25T00:29:49.000+02:00</time>
      </trkpt>
      <trkpt lat="46.62413830232559" lon="6.8824576555324075">
        <time>2013-04-25T00:29:49.000+02:00</time>
      </trkpt>
      <trkpt lat="46.62419081173258" lon="6.882156806278226">
        <time>2013-04-25T00:29:49.000+02:00</time>
      </trkpt>
      <trkpt lat="46.62427062457714" lon="6.881920960928012">
        <time>2013-04-25T00:29:49.000+02:00</time>
      </trkpt>
      <trkpt lat="46.624448940001045" lon="6.88159270341291">
        <time>2013-04-25T00:29:49.000+02:00</time>
      </trkpt>
      <trkpt lat="46.62460084180837" lon="6.881382229029686">
        <time>2013-04-25T00:29:49.000+02:00</time>
      </trkpt>
      <trkpt lat="46.624735453409905" lon="6.88131555948301">
        <time>2013-04-25T00:29:49.000+02:00</time>
      </trkpt>
      <trkpt lat="46.624834211033566" lon="6.881275372588842">
        <time>2013-04-25T00:29:49.000+02:00</time>
      </trkpt>
      <trkpt lat="46.624969013721376" lon="6.8812478720153045">
        <time>2013-04-25T00:29:49.000+02:00</time>
      </trkpt>
      <trkpt lat="46.62512180708307" lon="6.881220186278424">
        <time>2013-04-25T00:29:49.000+02:00</time>
      </trkpt>
      <trkpt lat="46.62524767813482" lon="6.881205834515133">
        <time>2013-04-25T00:29:49.000+02:00</time>
      </trkpt>
      <trkpt lat="46.62535562222291" lon="6.881204724323852">
        <time>2013-04-25T00:29:49.000+02:00</time>
      </trkpt>
      <trkpt lat="46.62553559275391" lon="6.881215930640767">
        <time>2013-04-25T00:29:49.000+02:00</time>
      </trkpt>
      <trkpt lat="46.62567983677581" lon="6.88127973380594">
        <time>2013-04-25T00:29:49.000+02:00</time>
      </trkpt>
      <trkpt lat="46.62578816310162" lon="6.881356963993266">
        <time>2013-04-25T00:29:49.000+02:00</time>
      </trkpt>
      <trkpt lat="46.6258783713038" lon="6.88140826599031">
        <time>2013-04-25T00:29:49.000+02:00</time>
      </trkpt>
      <trkpt lat="46.62603167424403" lon="6.881485034365322">
        <time>2013-04-25T00:29:49.000+02:00</time>
      </trkpt>
      <trkpt lat="46.626193908792274" lon="6.881548653912185">
        <time>2013-04-25T00:29:49.000+02:00</time>
      </trkpt>
      <trkpt lat="46.62635614330355" lon="6.881612273840565">
        <time>2013-04-25T00:29:49.000+02:00</time>
      </trkpt>
      <trkpt lat="46.62651844144264" lon="6.881688951033881">
        <time>2013-04-25T00:29:49.000+02:00</time>
      </trkpt>
      <trkpt lat="46.62666243055261" lon="6.881700528946012">
        <time>2013-04-25T00:29:49.000+02:00</time>
      </trkpt>
      <trkpt lat="46.626689416573726" lon="6.881700251638007">
        <time>2013-04-25T00:29:49.000+02:00</time>
      </trkpt>
      <trkpt lat="46.626805910320655" lon="6.881607651296852">
        <time>2013-04-25T00:29:49.000+02:00</time>
      </trkpt>
      <trkpt lat="46.62690390379154" lon="6.881410779681097">
        <time>2013-04-25T00:29:49.000+02:00</time>
      </trkpt>
      <trkpt lat="46.626992391786274" lon="6.881109543891439">
        <time>2013-04-25T00:29:49.000+02:00</time>
      </trkpt>
      <trkpt lat="46.62707162857347" lon="6.880756171637849">
        <time>2013-04-25T00:29:49.000+02:00</time>
      </trkpt>
      <trkpt lat="46.627150353726186" lon="6.880298342073941">
        <time>2013-04-25T00:29:49.000+02:00</time>
      </trkpt>
      <trkpt lat="46.627238008502204" lon="6.879827361376747">
        <time>2013-04-25T00:29:49.000+02:00</time>
      </trkpt>
      <trkpt lat="46.627325917045255" lon="6.87940860745579">
        <time>2013-04-25T00:29:49.000+02:00</time>
      </trkpt>
      <trkpt lat="46.62748655432357" lon="6.8791457944354795">
        <time>2013-04-25T00:29:49.000+02:00</time>
      </trkpt>
      <trkpt lat="46.62772776509238" lon="6.87880380066569">
        <time>2013-04-25T00:29:49.000+02:00</time>
      </trkpt>
      <trkpt lat="46.62795168843741" lon="6.878605619280021">
        <time>2013-04-25T00:29:49.000+02:00</time>
      </trkpt>
      <trkpt lat="46.62816719239649" lon="6.878525044736752">
        <time>2013-04-25T00:29:49.000+02:00</time>
      </trkpt>
      <trkpt lat="46.62833784768002" lon="6.878471049090297">
        <time>2013-04-25T00:29:49.000+02:00</time>
      </trkpt>
      <trkpt lat="46.62849982777473" lon="6.87848243287698">
        <time>2013-04-25T00:29:49.000+02:00</time>
      </trkpt>
      <trkpt lat="46.628607643749916" lon="6.878455202415626">
        <time>2013-04-25T00:29:49.000+02:00</time>
      </trkpt>
      <trkpt lat="46.62875150510121" lon="6.878440657329089">
        <time>2013-04-25T00:29:49.000+02:00</time>
      </trkpt>
      <trkpt lat="46.6288595131757" lon="6.878452598991398">
        <time>2013-04-25T00:29:49.000+02:00</time>
      </trkpt>
      <trkpt lat="46.62891297286891" lon="6.878347581451458">
        <time>2013-04-25T00:29:49.000+02:00</time>
      </trkpt>
      <trkpt lat="46.628786013221145" lon="6.878139964584499">
        <time>2013-04-25T00:29:49.000+02:00</time>
      </trkpt>
      <trkpt lat="46.62859499602282" lon="6.87771102469134">
        <time>2013-04-25T00:29:49.000+02:00</time>
      </trkpt>
      <trkpt lat="46.62849508536445" lon="6.877516188483194">
        <time>2013-04-25T00:29:49.000+02:00</time>
      </trkpt>
      <trkpt lat="46.62824135521825" lon="6.877140134715806">
        <time>2013-04-25T00:29:49.000+02:00</time>
      </trkpt>
      <trkpt lat="46.6281511451083" lon="6.877088837596491">
        <time>2013-04-25T00:29:49.000+02:00</time>
      </trkpt>
      <trkpt lat="46.627961986280404" lon="6.877038565997979">
        <time>2013-04-25T00:29:49.000+02:00</time>
      </trkpt>
      <trkpt lat="46.62786290918944" lon="6.877013476939246">
        <time>2013-04-25T00:29:49.000+02:00</time>
      </trkpt>
      <trkpt lat="46.627745905622106" lon="6.877001631589244">
        <time>2013-04-25T00:29:49.000+02:00</time>
      </trkpt>
      <trkpt lat="46.6274588251676" lon="6.877161299844981">
        <time>2013-04-25T00:29:49.000+02:00</time>
      </trkpt>
      <trkpt lat="46.627081855282654" lon="6.877334955069384">
        <time>2013-04-25T00:29:49.000+02:00</time>
      </trkpt>
      <trkpt lat="46.626974232037504" lon="6.877401357959512">
        <time>2013-04-25T00:29:49.000+02:00</time>
      </trkpt>
      <trkpt lat="46.626866608753005" lon="6.877467760585395">
        <time>2013-04-25T00:29:49.000+02:00</time>
      </trkpt>
      <trkpt lat="46.62669678764068" lon="6.877691497906486">
        <time>2013-04-25T00:29:49.000+02:00</time>
      </trkpt>
      <trkpt lat="46.62656249872636" lon="6.877823463335333">
        <time>2013-04-25T00:29:49.000+02:00</time>
      </trkpt>
      <trkpt lat="46.62651765025045" lon="6.87785004249449">
        <time>2013-04-25T00:29:49.000+02:00</time>
      </trkpt>
      <trkpt lat="46.62644530290325" lon="6.87777244593432">
        <time>2013-04-25T00:29:49.000+02:00</time>
      </trkpt>
      <trkpt lat="46.62644517467507" lon="6.877746332212249">
        <time>2013-04-25T00:29:49.000+02:00</time>
      </trkpt>
      <trkpt lat="46.62641709848282" lon="6.877524644969558">
        <time>2013-04-25T00:29:49.000+02:00</time>
      </trkpt>
      <trkpt lat="46.6264165211535" lon="6.877407133285198">
        <time>2013-04-25T00:29:49.000+02:00</time>
      </trkpt>
      <trkpt lat="46.62642506737281" lon="6.877315642145561">
        <time>2013-04-25T00:29:49.000+02:00</time>
      </trkpt>
      <trkpt lat="46.62649613161148" lon="6.8771321006082715">
        <time>2013-04-25T00:29:49.000+02:00</time>
      </trkpt>
      <trkpt lat="46.62656700292685" lon="6.876909387920495">
        <time>2013-04-25T00:29:49.000+02:00</time>
      </trkpt>
      <trkpt lat="46.6266379380431" lon="6.87669973155549">
        <time>2013-04-25T00:29:49.000+02:00</time>
      </trkpt>
      <trkpt lat="46.626718125135476" lon="6.876542209039709">
        <time>2013-04-25T00:29:49.000+02:00</time>
      </trkpt>
      <trkpt lat="46.6266815011819" lon="6.8764120130488084">
        <time>2013-04-25T00:29:49.000+02:00</time>
      </trkpt>
      <trkpt lat="46.62666338197013" lon="6.876386085855405">
        <time>2013-04-25T00:29:49.000+02:00</time>
      </trkpt>
      <trkpt lat="46.62651945659323" lon="6.876387578965986">
        <time>2013-04-25T00:29:49.000+02:00</time>
      </trkpt>
      <trkpt lat="46.626384783623436" lon="6.876441206129005">
        <time>2013-04-25T00:29:49.000+02:00</time>
      </trkpt>
      <trkpt lat="46.626250110627346" lon="6.876494833024962">
        <time>2013-04-25T00:29:49.000+02:00</time>
      </trkpt>
      <trkpt lat="46.6260886443471" lon="6.876587909849323">
        <time>2013-04-25T00:29:49.000+02:00</time>
      </trkpt>
      <trkpt lat="46.62595397127968" lon="6.876641536086377">
        <time>2013-04-25T00:29:49.000+02:00</time>
      </trkpt>
      <trkpt lat="46.62577438573755" lon="6.876708685087753">
        <time>2013-04-25T00:29:49.000+02:00</time>
      </trkpt>
      <trkpt lat="46.625621914615174" lon="6.87680166720638">
        <time>2013-04-25T00:29:49.000+02:00</time>
      </trkpt>
      <trkpt lat="46.62545138852764" lon="6.876881778646641">
        <time>2013-04-25T00:29:49.000+02:00</time>
      </trkpt>
      <trkpt lat="46.62506555207372" lon="6.877081635632237">
        <time>2013-04-25T00:29:49.000+02:00</time>
      </trkpt>
      <trkpt lat="46.62490370019023" lon="6.877096369736965">
        <time>2013-04-25T00:29:49.000+02:00</time>
      </trkpt>
      <trkpt lat="46.624750651069206" lon="6.877071841203935">
        <time>2013-04-25T00:29:49.000+02:00</time>
      </trkpt>
      <trkpt lat="46.624615656811756" lon="6.8770601828159705">
        <time>2013-04-25T00:29:49.000+02:00</time>
      </trkpt>
      <trkpt lat="46.624480726746775" lon="6.87706158087216">
        <time>2013-04-25T00:29:49.000+02:00</time>
      </trkpt>
      <trkpt lat="46.624345860873845" lon="6.877076035274813">
        <time>2013-04-25T00:29:49.000+02:00</time>
      </trkpt>
      <trkpt lat="46.62422937079104" lon="6.877168641161339">
        <time>2013-04-25T00:29:49.000+02:00</time>
      </trkpt>
      <trkpt lat="46.62403153753649" lon="6.877183747507459">
        <time>2013-04-25T00:29:49.000+02:00</time>
      </trkpt>
      <trkpt lat="46.623878360058086" lon="6.8771331066406365">
        <time>2013-04-25T00:29:49.000+02:00</time>
      </trkpt>
      <trkpt lat="46.623796567474834" lon="6.876964214481201">
        <time>2013-04-25T00:29:49.000+02:00</time>
      </trkpt>
      <trkpt lat="46.62375075599251" lon="6.876794949846489">
        <time>2013-04-25T00:29:49.000+02:00</time>
      </trkpt>
      <trkpt lat="46.623758980528336" lon="6.876638182061487">
        <time>2013-04-25T00:29:49.000+02:00</time>
      </trkpt>
      <trkpt lat="46.6237120116063" lon="6.87623390622412">
        <time>2013-04-25T00:29:49.000+02:00</time>
      </trkpt>
      <trkpt lat="46.62364840128267" lon="6.876103997760168">
        <time>2013-04-25T00:29:49.000+02:00</time>
      </trkpt>
      <trkpt lat="46.62357566683349" lon="6.875948070651879">
        <time>2013-04-25T00:29:49.000+02:00</time>
      </trkpt>
      <trkpt lat="46.623475109621815" lon="6.875622694357858">
        <time>2013-04-25T00:29:49.000+02:00</time>
      </trkpt>
      <trkpt lat="46.62341014642501" lon="6.875218608540503">
        <time>2013-04-25T00:29:49.000+02:00</time>
      </trkpt>
      <trkpt lat="46.62325239113162" lon="6.874240991621817">
        <time>2013-04-25T00:30:49.000+02:00</time>
      </trkpt>
      <trkpt lat="46.6232247598794" lon="6.874110711837701">
        <time>2013-04-25T00:30:49.000+02:00</time>
      </trkpt>
      <trkpt lat="46.62322217740755" lon="6.873588468689146">
        <time>2013-04-25T00:30:49.000+02:00</time>
      </trkpt>
      <trkpt lat="46.623282624539634" lon="6.8730786246229565">
        <time>2013-04-25T00:30:49.000+02:00</time>
      </trkpt>
      <trkpt lat="46.6232620466711" lon="6.872556568867203">
        <time>2013-04-25T00:30:49.000+02:00</time>
      </trkpt>
      <trkpt lat="46.6231253689447" lon="6.872205464676916">
        <time>2013-04-25T00:30:49.000+02:00</time>
      </trkpt>
      <trkpt lat="46.6230165830563" lon="6.872036864429478">
        <time>2013-04-25T00:30:49.000+02:00</time>
      </trkpt>
      <trkpt lat="46.622844570411985" lon="6.871816699369743">
        <time>2013-04-25T00:30:49.000+02:00</time>
      </trkpt>
      <trkpt lat="46.62273513573336" lon="6.871517541197484">
        <time>2013-04-25T00:30:49.000+02:00</time>
      </trkpt>
      <trkpt lat="46.622734292832085" lon="6.871347813746012">
        <time>2013-04-25T00:30:49.000+02:00</time>
      </trkpt>
      <trkpt lat="46.62285750255307" lon="6.870798144168434">
        <time>2013-04-25T00:30:49.000+02:00</time>
      </trkpt>
      <trkpt lat="46.62298135929005" lon="6.8703790322465315">
        <time>2013-04-25T00:30:49.000+02:00</time>
      </trkpt>
      <trkpt lat="46.62317698211687" lon="6.869919995161383">
        <time>2013-04-25T00:30:49.000+02:00</time>
      </trkpt>
      <trkpt lat="46.623409300038944" lon="6.869604194195175">
        <time>2013-04-25T00:30:49.000+02:00</time>
      </trkpt>
      <trkpt lat="46.623713840061356" lon="6.869339859325338">
        <time>2013-04-25T00:30:49.000+02:00</time>
      </trkpt>
      <trkpt lat="46.623802882135045" lon="6.869156127480525">
        <time>2013-04-25T00:30:49.000+02:00</time>
      </trkpt>
      <trkpt lat="46.623873477370985" lon="6.868881190518657">
        <time>2013-04-25T00:30:49.000+02:00</time>
      </trkpt>
      <trkpt lat="46.623926146443154" lon="6.868619498298159">
        <time>2013-04-25T00:30:49.000+02:00</time>
      </trkpt>
      <trkpt lat="46.6239700151491" lon="6.868397068974539">
        <time>2013-04-25T00:30:49.000+02:00</time>
      </trkpt>
      <trkpt lat="46.62398709305731" lon="6.868214092099413">
        <time>2013-04-25T00:30:49.000+02:00</time>
      </trkpt>
      <trkpt lat="46.62399530579457" lon="6.868057322328739">
        <time>2013-04-25T00:30:49.000+02:00</time>
      </trkpt>
      <trkpt lat="46.624002996324165" lon="6.867796102434172">
        <time>2013-04-25T00:30:49.000+02:00</time>
      </trkpt>
      <trkpt lat="46.6239835696924" lon="6.86750905431677">
        <time>2013-04-25T00:30:49.000+02:00</time>
      </trkpt>
      <trkpt lat="46.623964142337954" lon="6.867222006405701">
        <time>2013-04-25T00:30:49.000+02:00</time>
      </trkpt>
      <trkpt lat="46.62392659289153" lon="6.866909035993848">
        <time>2013-04-25T00:30:49.000+02:00</time>
      </trkpt>
      <trkpt lat="46.62386074845133" lon="6.866335226372397">
        <time>2013-04-25T00:30:49.000+02:00</time>
      </trkpt>
      <trkpt lat="46.62375110302044" lon="6.865996905084351">
        <time>2013-04-25T00:30:49.000+02:00</time>
      </trkpt>
      <trkpt lat="46.623605344267894" lon="6.865632853238335">
        <time>2013-04-25T00:30:49.000+02:00</time>
      </trkpt>
      <trkpt lat="46.623477902712054" lon="6.865333893676911">
        <time>2013-04-25T00:30:49.000+02:00</time>
      </trkpt>
      <trkpt lat="46.6233687788653" lon="6.865100025636289">
        <time>2013-04-25T00:30:49.000+02:00</time>
      </trkpt>
      <trkpt lat="46.62335006691747" lon="6.864956598933604">
        <time>2013-04-25T00:30:49.000+02:00</time>
      </trkpt>
      <trkpt lat="46.623385589132276" lon="6.864864825327951">
        <time>2013-04-25T00:30:49.000+02:00</time>
      </trkpt>
      <trkpt lat="46.623403514197044" lon="6.864851578757576">
        <time>2013-04-25T00:30:49.000+02:00</time>
      </trkpt>
      <trkpt lat="46.623457158185666" lon="6.8647857267457875">
        <time>2013-04-25T00:30:49.000+02:00</time>
      </trkpt>
      <trkpt lat="46.623537525678685" lon="6.864667364268389">
        <time>2013-04-25T00:30:49.000+02:00</time>
      </trkpt>
      <trkpt lat="46.62362728211028" lon="6.864627243145129">
        <time>2013-04-25T00:30:49.000+02:00</time>
      </trkpt>
      <trkpt lat="46.62373502918272" lon="6.8645869313359125">
        <time>2013-04-25T00:30:49.000+02:00</time>
      </trkpt>
      <trkpt lat="46.62379786522844" lon="6.8645601519882185">
        <time>2013-04-25T00:30:49.000+02:00</time>
      </trkpt>
      <trkpt lat="46.62387836376092" lon="6.8644679008806095">
        <time>2013-04-25T00:30:49.000+02:00</time>
      </trkpt>
      <trkpt lat="46.62390515282832" lon="6.864428446295962">
        <time>2013-04-25T00:30:49.000+02:00</time>
      </trkpt>
      <trkpt lat="46.62395853396632" lon="6.864310368276187">
        <time>2013-04-25T00:30:49.000+02:00</time>
      </trkpt>
      <trkpt lat="46.62401198064877" lon="6.864205346280524">
        <time>2013-04-25T00:30:49.000+02:00</time>
      </trkpt>
      <trkpt lat="46.62405649758463" lon="6.8641134757030455">
        <time>2013-04-25T00:30:49.000+02:00</time>
      </trkpt>
      <trkpt lat="46.62412806611396" lon="6.864034375145889">
        <time>2013-04-25T00:30:49.000+02:00</time>
      </trkpt>
      <trkpt lat="46.624217756628695" lon="6.863981196227771">
        <time>2013-04-25T00:30:49.000+02:00</time>
      </trkpt>
      <trkpt lat="46.62429858318415" lon="6.863954225172244">
        <time>2013-04-25T00:30:49.000+02:00</time>
      </trkpt>
      <trkpt lat="46.62437947543012" lon="6.86394031038159">
        <time>2013-04-25T00:30:49.000+02:00</time>
      </trkpt>
      <trkpt lat="46.62444250841369" lon="6.86395269904577">
        <time>2013-04-25T00:30:49.000+02:00</time>
      </trkpt>
      <trkpt lat="46.62455944766178" lon="6.86395145906198">
        <time>2013-04-25T00:30:49.000+02:00</time>
      </trkpt>
      <trkpt lat="46.62464033990623" lon="6.863937544200017">
        <time>2013-04-25T00:30:49.000+02:00</time>
      </trkpt>
      <trkpt lat="46.62471230251964" lon="6.863936781110708">
        <time>2013-04-25T00:30:49.000+02:00</time>
      </trkpt>
      <trkpt lat="46.62484729811533" lon="6.863948406771145">
        <time>2013-04-25T00:30:49.000+02:00</time>
      </trkpt>
      <trkpt lat="46.62494624670759" lon="6.863947357538606">
        <time>2013-04-25T00:30:49.000+02:00</time>
      </trkpt>
      <trkpt lat="46.625054256320915" lon="6.863959269425239">
        <time>2013-04-25T00:30:49.000+02:00</time>
      </trkpt>
      <trkpt lat="46.62521623789096" lon="6.863970609070555">
        <time>2013-04-25T00:30:49.000+02:00</time>
      </trkpt>
      <trkpt lat="46.62538728047577" lon="6.863994909992492">
        <time>2013-04-25T00:30:49.000+02:00</time>
      </trkpt>
      <trkpt lat="46.62550421971804" lon="6.863993670077909">
        <time>2013-04-25T00:30:49.000+02:00</time>
      </trkpt>
      <trkpt lat="46.62564834200329" lon="6.864031313977215">
        <time>2013-04-25T00:30:49.000+02:00</time>
      </trkpt>
      <trkpt lat="46.62573842663507" lon="6.864056473600305">
        <time>2013-04-25T00:30:49.000+02:00</time>
      </trkpt>
      <trkpt lat="46.62577447362247" lon="6.864069148809471">
        <time>2013-04-25T00:30:49.000+02:00</time>
      </trkpt>
      <trkpt lat="46.62589154422381" lon="6.864094022467557">
        <time>2013-04-25T00:30:49.000+02:00</time>
      </trkpt>
      <trkpt lat="46.62601747878988" lon="6.864092687392775">
        <time>2013-04-25T00:30:49.000+02:00</time>
      </trkpt>
      <trkpt lat="46.62611649305536" lon="6.864104695165977">
        <time>2013-04-25T00:30:49.000+02:00</time>
      </trkpt>
      <trkpt lat="46.626179526014795" lon="6.864117084419128">
        <time>2013-04-25T00:30:49.000+02:00</time>
      </trkpt>
      <trkpt lat="46.62620651199295" lon="6.864116798342157">
        <time>2013-04-25T00:30:49.000+02:00</time>
      </trkpt>
      <trkpt lat="46.62623349797104" lon="6.864116512264897">
        <time>2013-04-25T00:30:49.000+02:00</time>
      </trkpt>
      <trkpt lat="46.626350437208956" lon="6.864115272593452">
        <time>2013-04-25T00:30:49.000+02:00</time>
      </trkpt>
      <trkpt lat="46.62634163890573" lon="6.864154538410892">
        <time>2013-04-25T00:30:49.000+02:00</time>
      </trkpt>
      <trkpt lat="46.626476371771965" lon="6.864113937556615">
        <time>2013-04-25T00:30:49.000+02:00</time>
      </trkpt>
      <trkpt lat="46.62654807166002" lon="6.8640609471991105">
        <time>2013-04-25T00:30:49.000+02:00</time>
      </trkpt>
      <trkpt lat="46.6266108418855" lon="6.864021108963133">
        <time>2013-04-25T00:30:49.000+02:00</time>
      </trkpt>
      <trkpt lat="46.62664662611973" lon="6.863981556781785">
        <time>2013-04-25T00:30:49.000+02:00</time>
      </trkpt>
      <trkpt lat="46.62668254172988" lon="6.863968118350844">
        <time>2013-04-25T00:30:49.000+02:00</time>
      </trkpt>
      <trkpt lat="46.62674537761955" lon="6.8639413368246185">
        <time>2013-04-25T00:30:49.000+02:00</time>
      </trkpt>
      <trkpt lat="46.626835396571224" lon="6.863953439869466">
        <time>2013-04-25T00:30:49.000+02:00</time>
      </trkpt>
      <trkpt lat="46.62687124648033" lon="6.863926944426029">
        <time>2013-04-25T00:30:49.000+02:00</time>
      </trkpt>
      <trkpt lat="46.62694320908446" lon="6.863926181290603">
        <time>2013-04-25T00:30:49.000+02:00</time>
      </trkpt>
      <trkpt lat="46.6270780075667" lon="6.8638986364125545">
        <time>2013-04-25T00:30:49.000+02:00</time>
      </trkpt>
      <trkpt lat="46.627212871745" lon="6.863884148426461">
        <time>2013-04-25T00:30:49.000+02:00</time>
      </trkpt>
      <trkpt lat="46.62735659983337" lon="6.86384345083791">
        <time>2013-04-25T00:30:49.000+02:00</time>
      </trkpt>
      <trkpt lat="46.62747334193063" lon="6.863803039273628">
        <time>2013-04-25T00:30:49.000+02:00</time>
      </trkpt>
      <trkpt lat="46.62759907933783" lon="6.863762532114449">
        <time>2013-04-25T00:30:49.000+02:00</time>
      </trkpt>
      <trkpt lat="46.62768870398402" lon="6.86369629218837">
        <time>2013-04-25T00:30:49.000+02:00</time>
      </trkpt>
      <trkpt lat="46.62777846005238" lon="6.8636561663737945">
        <time>2013-04-25T00:30:49.000+02:00</time>
      </trkpt>
      <trkpt lat="46.62782317374796" lon="6.863603460475796">
        <time>2013-04-25T00:30:49.000+02:00</time>
      </trkpt>
      <trkpt lat="46.62789493913362" lon="6.863563525315611">
        <time>2013-04-25T00:30:49.000+02:00</time>
      </trkpt>
      <trkpt lat="46.6279846951542" lon="6.863523399127704">
        <time>2013-04-25T00:30:49.000+02:00</time>
      </trkpt>
      <trkpt lat="46.62800262005834" lon="6.863510150986354">
        <time>2013-04-25T00:30:49.000+02:00</time>
      </trkpt>
      <trkpt lat="46.62808357797948" lon="6.8635092918168175">
        <time>2013-04-25T00:30:49.000+02:00</time>
      </trkpt>
      <trkpt lat="46.62821831060227" lon="6.863468688047242">
        <time>2013-04-25T00:30:49.000+02:00</time>
      </trkpt>
      <trkpt lat="46.62829900550753" lon="6.863415599648354">
        <time>2013-04-25T00:30:49.000+02:00</time>
      </trkpt>
      <trkpt lat="46.628415944723784" lon="6.863414358413534">
        <time>2013-04-25T00:30:49.000+02:00</time>
      </trkpt>
      <trkpt lat="46.62855100609859" lon="6.863439040916224">
        <time>2013-04-25T00:30:49.000+02:00</time>
      </trkpt>
      <trkpt lat="46.62870399236345" lon="6.8634504752091665">
        <time>2013-04-25T00:30:49.000+02:00</time>
      </trkpt>
      <trkpt lat="46.628820865823805" lon="6.863436176623397">
        <time>2013-04-25T00:30:49.000+02:00</time>
      </trkpt>
      <trkpt lat="46.628937739281554" lon="6.863421877975792">
        <time>2013-04-25T00:30:49.000+02:00</time>
      </trkpt>
      <trkpt lat="46.62901882870667" lon="6.8634471335883385">
        <time>2013-04-25T00:30:49.000+02:00</time>
      </trkpt>
      <trkpt lat="46.629108650437246" lon="6.863420063859599">
        <time>2013-04-25T00:30:49.000+02:00</time>
      </trkpt>
      <trkpt lat="46.62920773050977" lon="6.8634451285970135">
        <time>2013-04-25T00:30:49.000+02:00</time>
      </trkpt>
      <trkpt lat="46.6292976837486" lon="6.863444173834279">
        <time>2013-04-25T00:30:49.000+02:00</time>
      </trkpt>
      <trkpt lat="46.62945053849918" lon="6.863429493161392">
        <time>2013-04-25T00:30:49.000+02:00</time>
      </trkpt>
      <trkpt lat="46.62964843562086" lon="6.8634273926123575">
        <time>2013-04-25T00:30:49.000+02:00</time>
      </trkpt>
      <trkpt lat="46.629774304395426" lon="6.863412998244242">
        <time>2013-04-25T00:30:49.000+02:00</time>
      </trkpt>
      <trkpt lat="46.629900107407906" lon="6.863385546131729">
        <time>2013-04-25T00:30:49.000+02:00</time>
      </trkpt>
      <trkpt lat="46.63007075550024" lon="6.863331500993801">
        <time>2013-04-25T00:30:49.000+02:00</time>
      </trkpt>
      <trkpt lat="46.630223347145595" lon="6.863264588771184">
        <time>2013-04-25T00:30:49.000+02:00</time>
      </trkpt>
      <trkpt lat="46.63030410772555" lon="6.863224555874112">
        <time>2013-04-25T00:30:49.000+02:00</time>
      </trkpt>
      <trkpt lat="46.63037593875033" lon="6.863197676170987">
        <time>2013-04-25T00:30:49.000+02:00</time>
      </trkpt>
      <trkpt lat="46.6305824364619" lon="6.863117132166315">
        <time>2013-04-25T00:30:49.000+02:00</time>
      </trkpt>
      <trkpt lat="46.630717234719924" lon="6.86308958341731">
        <time>2013-04-25T00:30:49.000+02:00</time>
      </trkpt>
      <trkpt lat="46.6309060707029" lon="6.863074519193513">
        <time>2013-04-25T00:30:49.000+02:00</time>
      </trkpt>
      <trkpt lat="46.631085977155834" lon="6.863072608371246">
        <time>2013-04-25T00:30:49.000+02:00</time>
      </trkpt>
      <trkpt lat="46.63133771459122" lon="6.863043817150564">
        <time>2013-04-25T00:30:49.000+02:00</time>
      </trkpt>
      <trkpt lat="46.63154454120584" lon="6.863028561494713">
        <time>2013-04-25T00:30:49.000+02:00</time>
      </trkpt>
      <trkpt lat="46.63175117040098" lon="6.862974131350859">
        <time>2013-04-25T00:30:49.000+02:00</time>
      </trkpt>
      <trkpt lat="46.631885705361746" lon="6.862894349025216">
        <time>2013-04-25T00:30:49.000+02:00</time>
      </trkpt>
      <trkpt lat="46.63198419315185" lon="6.862801890466747">
        <time>2013-04-25T00:30:49.000+02:00</time>
      </trkpt>
      <trkpt lat="46.632019516094914" lon="6.862670926231703">
        <time>2013-04-25T00:30:49.000+02:00</time>
      </trkpt>
      <trkpt lat="46.632099749637916" lon="6.862526425459169">
        <time>2013-04-25T00:30:49.000+02:00</time>
      </trkpt>
      <trkpt lat="46.63218018061569" lon="6.862421098937531">
        <time>2013-04-25T00:30:49.000+02:00</time>
      </trkpt>
      <trkpt lat="46.63225181381545" lon="6.862355042503238">
        <time>2013-04-25T00:30:49.000+02:00</time>
      </trkpt>
      <trkpt lat="46.632359032920625" lon="6.862210253580338">
        <time>2013-04-25T00:30:49.000+02:00</time>
      </trkpt>
      <trkpt lat="46.63255627096168" lon="6.862077565284709">
        <time>2013-04-25T00:30:49.000+02:00</time>
      </trkpt>
      <trkpt lat="46.63278023109591" lon="6.861892355341862">
        <time>2013-04-25T00:30:49.000+02:00</time>
      </trkpt>
      <trkpt lat="46.63299519560586" lon="6.86170723963712">
        <time>2013-04-25T00:30:49.000+02:00</time>
      </trkpt>
      <trkpt lat="46.6331745083803" lon="6.861587798000553">
        <time>2013-04-25T00:30:49.000+02:00</time>
      </trkpt>
      <trkpt lat="46.6334257176073" lon="6.861454530546452">
        <time>2013-04-25T00:30:49.000+02:00</time>
      </trkpt>
      <trkpt lat="46.633668063344956" lon="6.861347474860434">
        <time>2013-04-25T00:30:49.000+02:00</time>
      </trkpt>
      <trkpt lat="46.633883687030796" lon="6.86129294031388">
        <time>2013-04-25T00:30:49.000+02:00</time>
      </trkpt>
      <trkpt lat="46.63402695206989" lon="6.861160820120716">
        <time>2013-04-25T00:30:49.000+02:00</time>
      </trkpt>
      <trkpt lat="46.634134037581255" lon="6.8609899066852735">
        <time>2013-04-25T00:30:49.000+02:00</time>
      </trkpt>
      <trkpt lat="46.63419660858162" lon="6.860910883161922">
        <time>2013-04-25T00:30:49.000+02:00</time>
      </trkpt>
      <trkpt lat="46.6345373738102" lon="6.860698297990114">
        <time>2013-04-25T00:30:49.000+02:00</time>
      </trkpt>
      <trkpt lat="46.63479737903937" lon="6.860525750512344">
        <time>2013-04-25T00:30:49.000+02:00</time>
      </trkpt>
      <trkpt lat="46.63511969008136" lon="6.860221940032089">
        <time>2013-04-25T00:30:49.000+02:00</time>
      </trkpt>
      <trkpt lat="46.6352892122189" lon="6.859945877130279">
        <time>2013-04-25T00:30:49.000+02:00</time>
      </trkpt>
      <trkpt lat="46.63526096907081" lon="6.859698044958756">
        <time>2013-04-25T00:30:49.000+02:00</time>
      </trkpt>
      <trkpt lat="46.635178091298684" lon="6.859320200487009">
        <time>2013-04-25T00:30:49.000+02:00</time>
      </trkpt>
      <trkpt lat="46.63514832255297" lon="6.85877201355485">
        <time>2013-04-25T00:30:49.000+02:00</time>
      </trkpt>
      <trkpt lat="46.6352001724568" lon="6.858353549534191">
        <time>2013-04-25T00:30:49.000+02:00</time>
      </trkpt>
      <trkpt lat="46.63539541475711" lon="6.857829070276022">
        <time>2013-04-25T00:30:49.000+02:00</time>
      </trkpt>
      <trkpt lat="46.635591053354595" lon="6.85738294149379">
        <time>2013-04-25T00:30:49.000+02:00</time>
      </trkpt>
      <trkpt lat="46.635796350430184" lon="6.857067303841897">
        <time>2013-04-25T00:30:49.000+02:00</time>
      </trkpt>
      <trkpt lat="46.63602783422806" lon="6.856594664207829">
        <time>2013-04-25T00:30:49.000+02:00</time>
      </trkpt>
      <trkpt lat="46.636151172514474" lon="6.8560840034741695">
        <time>2013-04-25T00:30:49.000+02:00</time>
      </trkpt>
      <trkpt lat="46.63619468360418" lon="6.855796217775947">
        <time>2013-04-25T00:30:49.000+02:00</time>
      </trkpt>
      <trkpt lat="46.63627497505945" lon="6.855664754858411">
        <time>2013-04-25T00:30:49.000+02:00</time>
      </trkpt>
      <trkpt lat="46.63634713749363" lon="6.855703158267568">
        <time>2013-04-25T00:30:49.000+02:00</time>
      </trkpt>
      <trkpt lat="46.63666343918614" lon="6.855987075682141">
        <time>2013-04-25T00:30:49.000+02:00</time>
      </trkpt>
      <trkpt lat="46.63705203553056" lon="6.856335519926162">
        <time>2013-04-25T00:30:49.000+02:00</time>
      </trkpt>
      <trkpt lat="46.63736833563533" lon="6.856619444739033">
        <time>2013-04-25T00:30:49.000+02:00</time>
      </trkpt>
      <trkpt lat="46.63772987759394" lon="6.85695512821405">
        <time>2013-04-25T00:30:49.000+02:00</time>
      </trkpt>
      <trkpt lat="46.63799213779518" lon="6.85722657972985">
        <time>2013-04-25T00:30:49.000+02:00</time>
      </trkpt>
      <trkpt lat="46.63804657490001" lon="6.857317418027845">
        <time>2013-04-25T00:30:49.000+02:00</time>
      </trkpt>
      <trkpt lat="46.63812693456897" lon="6.8571990125222415">
        <time>2013-04-25T00:30:49.000+02:00</time>
      </trkpt>
      <trkpt lat="46.63837813859008" lon="6.857065712477101">
        <time>2013-04-25T00:30:49.000+02:00</time>
      </trkpt>
      <trkpt lat="46.638737419206024" lon="6.856957371882345">
        <time>2013-04-25T00:30:49.000+02:00</time>
      </trkpt>
      <trkpt lat="46.63889893583837" lon="6.856877274524366">
        <time>2013-04-25T00:30:49.000+02:00</time>
      </trkpt>
      <trkpt lat="46.63913155009938" lon="6.856626625217548">
        <time>2013-04-25T00:30:49.000+02:00</time>
      </trkpt>
      <trkpt lat="46.639309459651095" lon="6.856232894430404">
        <time>2013-04-25T00:30:49.000+02:00</time>
      </trkpt>
      <trkpt lat="46.63942539985271" lon="6.856035737885201">
        <time>2013-04-25T00:30:49.000+02:00</time>
      </trkpt>
      <trkpt lat="46.639587049049645" lon="6.85598175676942">
        <time>2013-04-25T00:30:49.000+02:00</time>
      </trkpt>
      <trkpt lat="46.639748564988196" lon="6.8559016552391565">
        <time>2013-04-25T00:30:49.000+02:00</time>
      </trkpt>
      <trkpt lat="46.63984711368728" lon="6.8558222305727865">
        <time>2013-04-25T00:30:49.000+02:00</time>
      </trkpt>
      <trkpt lat="46.639954124511625" lon="6.855638228078325">
        <time>2013-04-25T00:30:49.000+02:00</time>
      </trkpt>
      <trkpt lat="46.64007892564899" lon="6.855414850831163">
        <time>2013-04-25T00:30:49.000+02:00</time>
      </trkpt>
      <trkpt lat="46.64011350643302" lon="6.8551402007057005">
        <time>2013-04-25T00:30:49.000+02:00</time>
      </trkpt>
      <trkpt lat="46.6402206496029" lon="6.854982316272783">
        <time>2013-04-25T00:30:49.000+02:00</time>
      </trkpt>
      <trkpt lat="46.64039082646704" lon="6.854836812903603">
        <time>2013-04-25T00:30:49.000+02:00</time>
      </trkpt>
      <trkpt lat="46.64055113988286" lon="6.854521622475609">
        <time>2013-04-25T00:30:49.000+02:00</time>
      </trkpt>
      <trkpt lat="46.64064895289872" lon="6.854298531240097">
        <time>2013-04-25T00:30:49.000+02:00</time>
      </trkpt>
      <trkpt lat="46.640683798309745" lon="6.85407611858373">
        <time>2013-04-25T00:30:49.000+02:00</time>
      </trkpt>
      <trkpt lat="46.64071857643456" lon="6.8538406453633325">
        <time>2013-04-25T00:30:49.000+02:00</time>
      </trkpt>
      <trkpt lat="46.640913730996814" lon="6.853303035972804">
        <time>2013-04-25T00:30:49.000+02:00</time>
      </trkpt>
      <trkpt lat="46.64109189688089" lon="6.85296152274454">
        <time>2013-04-25T00:30:49.000+02:00</time>
      </trkpt>
      <trkpt lat="46.64124320979864" lon="6.852646419966239">
        <time>2013-04-25T00:30:49.000+02:00</time>
      </trkpt>
      <trkpt lat="46.641340684046185" lon="6.852358020355126">
        <time>2013-04-25T00:30:49.000+02:00</time>
      </trkpt>
      <trkpt lat="46.64147541258764" lon="6.852317378846135">
        <time>2013-04-25T00:30:49.000+02:00</time>
      </trkpt>
      <trkpt lat="46.64154764314816" lon="6.8523688419560775">
        <time>2013-04-25T00:30:49.000+02:00</time>
      </trkpt>
      <trkpt lat="46.64185495773209" lon="6.852652864458619">
        <time>2013-04-25T00:30:49.000+02:00</time>
      </trkpt>
      <trkpt lat="46.642180396128964" lon="6.852962816953298">
        <time>2013-04-25T00:30:49.000+02:00</time>
      </trkpt>
      <trkpt lat="46.642595853674145" lon="6.853284861987048">
        <time>2013-04-25T00:30:49.000+02:00</time>
      </trkpt>
      <trkpt lat="46.64293814375631" lon="6.853372594428183">
        <time>2013-04-25T00:30:49.000+02:00</time>
      </trkpt>
      <trkpt lat="46.64351411106474" lon="6.853418618895137">
        <time>2013-04-25T00:30:49.000+02:00</time>
      </trkpt>
      <trkpt lat="46.64395528251329" lon="6.853492223899609">
        <time>2013-04-25T00:30:49.000+02:00</time>
      </trkpt>
      <trkpt lat="46.64433301852335" lon="6.853475082079988">
        <time>2013-04-25T00:30:49.000+02:00</time>
      </trkpt>
      <trkpt lat="46.64475559725912" lon="6.853431331690112">
        <time>2013-04-25T00:30:49.000+02:00</time>
      </trkpt>
      <trkpt lat="46.64522328630668" lon="6.85341321745657">
        <time>2013-04-25T00:30:49.000+02:00</time>
      </trkpt>
      <trkpt lat="46.64561934738857" lon="6.853461187630293">
        <time>2013-04-25T00:30:49.000+02:00</time>
      </trkpt>
      <trkpt lat="46.64596150349338" lon="6.8535228030033535">
        <time>2013-04-25T00:30:49.000+02:00</time>
      </trkpt>
      <trkpt lat="46.64622250114853" lon="6.853546108658621">
        <time>2013-04-25T00:30:49.000+02:00</time>
      </trkpt>
      <trkpt lat="46.64641126879825" lon="6.853517945128482">
        <time>2013-04-25T00:30:49.000+02:00</time>
      </trkpt>
      <trkpt lat="46.64651874420122" lon="6.853425347480802">
        <time>2013-04-25T00:30:49.000+02:00</time>
      </trkpt>
      <trkpt lat="46.6466708614811" lon="6.853266954944788">
        <time>2013-04-25T00:30:49.000+02:00</time>
      </trkpt>
      <trkpt lat="46.64680505486497" lon="6.853121817718454">
        <time>2013-04-25T00:30:49.000+02:00</time>
      </trkpt>
      <trkpt lat="46.646921458302025" lon="6.853016059593928">
        <time>2013-04-25T00:30:49.000+02:00</time>
      </trkpt>
      <trkpt lat="46.64705565136444" lon="6.852870921072324">
        <time>2013-04-25T00:30:49.000+02:00</time>
      </trkpt>
      <trkpt lat="46.647189777259435" lon="6.8527127199913025">
        <time>2013-04-25T00:30:49.000+02:00</time>
      </trkpt>
      <trkpt lat="46.647332831237286" lon="6.852541358931834">
        <time>2013-04-25T00:30:49.000+02:00</time>
      </trkpt>
      <trkpt lat="46.64746729175427" lon="6.852448465750624">
        <time>2013-04-25T00:30:49.000+02:00</time>
      </trkpt>
      <trkpt lat="46.647610948561606" lon="6.852394660574472">
        <time>2013-04-25T00:30:49.000+02:00</time>
      </trkpt>
      <trkpt lat="46.6477906535831" lon="6.852353527669541">
        <time>2013-04-25T00:30:49.000+02:00</time>
      </trkpt>
      <trkpt lat="46.64789859723268" lon="6.85235235941288">
        <time>2013-04-25T00:30:49.000+02:00</time>
      </trkpt>
      <trkpt lat="46.6480239952519" lon="6.852246500120231">
        <time>2013-04-25T00:30:49.000+02:00</time>
      </trkpt>
      <trkpt lat="46.64816771899987" lon="6.852205755927976">
        <time>2013-04-25T00:30:49.000+02:00</time>
      </trkpt>
      <trkpt lat="46.64832043803563" lon="6.852164914132221">
        <time>2013-04-25T00:30:49.000+02:00</time>
      </trkpt>
      <trkpt lat="46.64847322410422" lon="6.8521371342540185">
        <time>2013-04-25T00:30:49.000+02:00</time>
      </trkpt>
      <trkpt lat="46.648590028950615" lon="6.852109743805184">
        <time>2013-04-25T00:30:49.000+02:00</time>
      </trkpt>
      <trkpt lat="46.64877866210441" lon="6.852055449582396">
        <time>2013-04-25T00:30:49.000+02:00</time>
      </trkpt>
      <trkpt lat="46.64894930462363" lon="6.852001349811221">
        <time>2013-04-25T00:30:49.000+02:00</time>
      </trkpt>
      <trkpt lat="46.64913787065063" lon="6.851933992540739">
        <time>2013-04-25T00:30:49.000+02:00</time>
      </trkpt>
      <trkpt lat="46.649272598973596" lon="6.851893344111922">
        <time>2013-04-25T00:30:49.000+02:00</time>
      </trkpt>
      <trkpt lat="46.649416255502146" lon="6.851839535663915">
        <time>2013-04-25T00:30:49.000+02:00</time>
      </trkpt>
      <trkpt lat="46.649550983789" lon="6.8517988867903785">
        <time>2013-04-25T00:30:49.000+02:00</time>
      </trkpt>
      <trkpt lat="46.64969470736272" lon="6.851758140257207">
        <time>2013-04-25T00:30:49.000+02:00</time>
      </trkpt>
      <trkpt lat="46.64987434503306" lon="6.851703941164491">
        <time>2013-04-25T00:30:49.000+02:00</time>
      </trkpt>
      <trkpt lat="46.65003605917431" lon="6.85166299918823">
        <time>2013-04-25T00:30:49.000+02:00</time>
      </trkpt>
      <trkpt lat="46.650188710889125" lon="6.851609091885505">
        <time>2013-04-25T00:30:49.000+02:00</time>
      </trkpt>
      <trkpt lat="46.6503057169243" lon="6.851620887197425">
        <time>2013-04-25T00:30:49.000+02:00</time>
      </trkpt>
      <trkpt lat="46.65045950933004" lon="6.851789044173453">
        <time>2013-04-25T00:30:49.000+02:00</time>
      </trkpt>
      <trkpt lat="46.65064015325216" lon="6.851930784485919">
        <time>2013-04-25T00:30:49.000+02:00</time>
      </trkpt>
      <trkpt lat="46.650811332267956" lon="6.851981184160676">
        <time>2013-04-25T00:30:49.000+02:00</time>
      </trkpt>
      <trkpt lat="46.65092827119441" lon="6.8519799176722165">
        <time>2013-04-25T00:30:49.000+02:00</time>
      </trkpt>
      <trkpt lat="46.6511084454872" lon="6.8520302203566175">
        <time>2013-04-25T00:30:49.000+02:00</time>
      </trkpt>
      <trkpt lat="46.65134299386854" lon="6.852158315986867">
        <time>2013-04-25T00:30:49.000+02:00</time>
      </trkpt>
      <trkpt lat="46.65153256559297" lon="6.852286899590902">
        <time>2013-04-25T00:30:49.000+02:00</time>
      </trkpt>
      <trkpt lat="46.65169548632728" lon="6.852481090786109">
        <time>2013-04-25T00:30:49.000+02:00</time>
      </trkpt>
      <trkpt lat="46.65175892246674" lon="6.852571850000008">
        <time>2013-04-25T00:30:49.000+02:00</time>
      </trkpt>
      <trkpt lat="46.651776980068476" lon="6.852584718296065">
        <time>2013-04-25T00:30:49.000+02:00</time>
      </trkpt>
      <trkpt lat="46.651777047064705" lon="6.852597781243097">
        <time>2013-04-25T00:30:49.000+02:00</time>
      </trkpt>
      <trkpt lat="46.651768051762666" lon="6.852597878564235">
        <time>2013-04-25T00:30:49.000+02:00</time>
      </trkpt>
      <trkpt lat="46.651813296242885" lon="6.852649643781427">
        <time>2013-04-25T00:30:49.000+02:00</time>
      </trkpt>
      <trkpt lat="46.65189472285195" lon="6.852740208795545">
        <time>2013-04-25T00:30:49.000+02:00</time>
      </trkpt>
      <trkpt lat="46.65203951828959" lon="6.8529084711668595">
        <time>2013-04-25T00:30:49.000+02:00</time>
      </trkpt>
      <trkpt lat="46.652184380417594" lon="6.8530897974854295">
        <time>2013-04-25T00:30:49.000+02:00</time>
      </trkpt>
      <trkpt lat="46.65235616124366" lon="6.853257770057253">
        <time>2013-04-25T00:30:49.000+02:00</time>
      </trkpt>
      <trkpt lat="46.65251887961676" lon="6.853412777753819">
        <time>2013-04-25T00:30:49.000+02:00</time>
      </trkpt>
      <trkpt lat="46.652708851210186" lon="6.853619747592493">
        <time>2013-04-25T00:30:49.000+02:00</time>
      </trkpt>
      <trkpt lat="46.65286310862291" lon="6.853879360204214">
        <time>2013-04-25T00:30:49.000+02:00</time>
      </trkpt>
      <trkpt lat="46.65295406421162" lon="6.854074337598826">
        <time>2013-04-25T00:30:49.000+02:00</time>
      </trkpt>
      <trkpt lat="46.65309133176331" lon="6.854530095755913">
        <time>2013-04-25T00:30:49.000+02:00</time>
      </trkpt>
      <trkpt lat="46.65320141141059" lon="6.854946957124219">
        <time>2013-04-25T00:30:49.000+02:00</time>
      </trkpt>
      <trkpt lat="46.65326511243428" lon="6.855089974997724">
        <time>2013-04-25T00:30:49.000+02:00</time>
      </trkpt>
      <trkpt lat="46.65332787941978" lon="6.855050106657655">
        <time>2013-04-25T00:30:49.000+02:00</time>
      </trkpt>
      <trkpt lat="46.65335453173721" lon="6.854984499253277">
        <time>2013-04-25T00:30:49.000+02:00</time>
      </trkpt>
      <trkpt lat="46.653523974241224" lon="6.8546952634490115">
        <time>2013-04-25T00:30:49.000+02:00</time>
      </trkpt>
      <trkpt lat="46.65368462106598" lon="6.854445313086334">
        <time>2013-04-25T00:30:49.000+02:00</time>
      </trkpt>
      <trkpt lat="46.65370247810004" lon="6.854418992222634">
        <time>2013-04-25T00:30:49.000+02:00</time>
      </trkpt>
      <trkpt lat="46.65379269826028" lon="6.854470275749661">
        <time>2013-04-25T00:30:49.000+02:00</time>
      </trkpt>
      <trkpt lat="46.65403710699929" lon="6.854768116774038">
        <time>2013-04-25T00:30:49.000+02:00</time>
      </trkpt>
      <trkpt lat="46.654299438848405" lon="6.855052703101383">
        <time>2013-04-25T00:30:49.000+02:00</time>
      </trkpt>
      <trkpt lat="46.654516660103035" lon="6.855311649317335">
        <time>2013-04-25T00:30:49.000+02:00</time>
      </trkpt>
      <trkpt lat="46.65470682820258" lon="6.8555578244510285">
        <time>2013-04-25T00:30:49.000+02:00</time>
      </trkpt>
      <trkpt lat="46.654933376723385" lon="6.855881996424657">
        <time>2013-04-25T00:30:49.000+02:00</time>
      </trkpt>
      <trkpt lat="46.65525047653106" lon="6.856322777960894">
        <time>2013-04-25T00:30:49.000+02:00</time>
      </trkpt>
      <trkpt lat="46.655477222458735" lon="6.856686147937993">
        <time>2013-04-25T00:30:49.000+02:00</time>
      </trkpt>
      <trkpt lat="46.65553179296426" lon="6.856803142785651">
        <time>2013-04-25T00:30:49.000+02:00</time>
      </trkpt>
      <trkpt lat="46.65574887725635" lon="6.857035974112177">
        <time>2013-04-25T00:30:49.000+02:00</time>
      </trkpt>
      <trkpt lat="46.656001543493325" lon="6.857190037260022">
        <time>2013-04-25T00:30:49.000+02:00</time>
      </trkpt>
      <trkpt lat="46.656442911524486" lon="6.85730288226757">
        <time>2013-04-25T00:30:49.000+02:00</time>
      </trkpt>
      <trkpt lat="46.65686602303778" lon="6.857363665444084">
        <time>2013-04-25T00:30:49.000+02:00</time>
      </trkpt>
      <trkpt lat="46.657397476770534" lon="6.857501677098516">
        <time>2013-04-25T00:30:49.000+02:00</time>
      </trkpt>
      <trkpt lat="46.65756858681878" lon="6.857539036356501">
        <time>2013-04-25T00:30:49.000+02:00</time>
      </trkpt>
      <trkpt lat="46.65788461790993" lon="6.857770818223623">
        <time>2013-04-25T00:30:49.000+02:00</time>
      </trkpt>
      <trkpt lat="46.658309587638264" lon="6.858197413578947">
        <time>2013-04-25T00:30:49.000+02:00</time>
      </trkpt>
      <trkpt lat="46.65874328582856" lon="6.8585716607583604">
        <time>2013-04-25T00:30:49.000+02:00</time>
      </trkpt>
      <trkpt lat="46.6589774952419" lon="6.8586344793828">
        <time>2013-04-25T00:30:49.000+02:00</time>
      </trkpt>
      <trkpt lat="46.65903159966424" lon="6.858660030818245">
        <time>2013-04-25T00:30:49.000+02:00</time>
      </trkpt>
      <trkpt lat="46.65936548649964" lon="6.85886550335772">
        <time>2013-04-25T00:30:49.000+02:00</time>
      </trkpt>
      <trkpt lat="46.65974481321431" lon="6.859161951304993">
        <time>2013-04-25T00:30:49.000+02:00</time>
      </trkpt>
      <trkpt lat="46.660006670486354" lon="6.859355134388533">
        <time>2013-04-25T00:30:49.000+02:00</time>
      </trkpt>
      <trkpt lat="46.6605123272513" lon="6.859728633399787">
        <time>2013-04-25T00:30:49.000+02:00</time>
      </trkpt>
      <trkpt lat="46.66095494951954" lon="6.860089746847942">
        <time>2013-04-25T00:30:49.000+02:00</time>
      </trkpt>
      <trkpt lat="46.661325211604705" lon="6.86037324287938">
        <time>2013-04-25T00:30:49.000+02:00</time>
      </trkpt>
      <trkpt lat="46.66171392605369" lon="6.860748008305403">
        <time>2013-04-25T00:30:49.000+02:00</time>
      </trkpt>
      <trkpt lat="46.66239180904691" lon="6.861381020072727">
        <time>2013-04-25T00:31:49.000+02:00</time>
      </trkpt>
      <trkpt lat="46.66306036358852" lon="6.861948815063369">
        <time>2013-04-25T00:32:49.000+02:00</time>
      </trkpt>
      <trkpt lat="46.66355721409192" lon="6.862361652574557">
        <time>2013-04-25T00:32:49.000+02:00</time>
      </trkpt>
      <trkpt lat="46.66404526526489" lon="6.862813791097517">
        <time>2013-04-25T00:32:49.000+02:00</time>
      </trkpt>
      <trkpt lat="46.66449713608839" lon="6.8632271219582535">
        <time>2013-04-25T00:32:49.000+02:00</time>
      </trkpt>
      <trkpt lat="46.664623662278714" lon="6.863343378480132">
        <time>2013-04-25T00:32:49.000+02:00</time>
      </trkpt>
      <trkpt lat="46.66478636681095" lon="6.863498451709798">
        <time>2013-04-25T00:32:49.000+02:00</time>
      </trkpt>
      <trkpt lat="46.665138826858595" lon="6.863821380719812">
        <time>2013-04-25T00:32:49.000+02:00</time>
      </trkpt>
      <trkpt lat="46.665563511091946" lon="6.864195815714532">
        <time>2013-04-25T00:32:49.000+02:00</time>
      </trkpt>
      <trkpt lat="46.66581662700013" lon="6.864441404778474">
        <time>2013-04-25T00:32:49.000+02:00</time>
      </trkpt>
      <trkpt lat="46.66607932811842" lon="6.864804498572288">
        <time>2013-04-25T00:32:49.000+02:00</time>
      </trkpt>
      <trkpt lat="46.66634294571522" lon="6.865350526652971">
        <time>2013-04-25T00:32:49.000+02:00</time>
      </trkpt>
      <trkpt lat="46.666388446468176" lon="6.865454582476513">
        <time>2013-04-25T00:32:49.000+02:00</time>
      </trkpt>
      <trkpt lat="46.6666600741735" lon="6.865804523326956">
        <time>2013-04-25T00:32:49.000+02:00</time>
      </trkpt>
      <trkpt lat="46.66672330322252" lon="6.865856123574431">
        <time>2013-04-25T00:32:49.000+02:00</time>
      </trkpt>
      <trkpt lat="46.666769392640646" lon="6.8660777798365">
        <time>2013-04-25T00:32:49.000+02:00</time>
      </trkpt>
      <trkpt lat="46.66671594438203" lon="6.866182883058945">
        <time>2013-04-25T00:32:49.000+02:00</time>
      </trkpt>
      <trkpt lat="46.66649361277769" lon="6.866694854533719">
        <time>2013-04-25T00:32:49.000+02:00</time>
      </trkpt>
      <trkpt lat="46.66621782957211" lon="6.867311922934882">
        <time>2013-04-25T00:32:49.000+02:00</time>
      </trkpt>
      <trkpt lat="46.665773284298716" lon="6.8683619756489005">
        <time>2013-04-25T00:33:49.000+02:00</time>
      </trkpt>
      <trkpt lat="46.665391045726764" lon="6.869280686679716">
        <time>2013-04-25T00:34:49.000+02:00</time>
      </trkpt>
      <trkpt lat="46.66494648230925" lon="6.870330707144573">
        <time>2013-04-25T00:35:49.000+02:00</time>
      </trkpt>
      <trkpt lat="46.66454630210232" lon="6.871262644741504">
        <time>2013-04-25T00:36:49.000+02:00</time>
      </trkpt>
      <trkpt lat="46.66425302178683" lon="6.871984383768735">
        <time>2013-04-25T00:36:49.000+02:00</time>
      </trkpt>
      <trkpt lat="46.663924014413034" lon="6.872758754582785">
        <time>2013-04-25T00:36:49.000+02:00</time>
      </trkpt>
      <trkpt lat="46.663639461504516" lon="6.873428119960578">
        <time>2013-04-25T00:36:49.000+02:00</time>
      </trkpt>
      <trkpt lat="46.66332817684627" lon="6.874150022645428">
        <time>2013-04-25T00:36:49.000+02:00</time>
      </trkpt>
      <trkpt lat="46.663051515196784" lon="6.874597162797828">
        <time>2013-04-25T00:36:49.000+02:00</time>
      </trkpt>
      <trkpt lat="46.662746963749505" lon="6.874861660434048">
        <time>2013-04-25T00:36:49.000+02:00</time>
      </trkpt>
      <trkpt lat="46.662459693647705" lon="6.8749822467876776">
        <time>2013-04-25T00:36:49.000+02:00</time>
      </trkpt>
      <trkpt lat="46.661928841226825" lon="6.874961639214847">
        <time>2013-04-25T00:36:49.000+02:00</time>
      </trkpt>
      <trkpt lat="46.66104588246597" lon="6.874683378950629">
        <time>2013-04-25T00:37:49.000+02:00</time>
      </trkpt>
      <trkpt lat="46.66033409194387" lon="6.874455607485206">
        <time>2013-04-25T00:38:49.000+02:00</time>
      </trkpt>
      <trkpt lat="46.66006397450423" lon="6.87440615855919">
        <time>2013-04-25T00:38:49.000+02:00</time>
      </trkpt>
      <trkpt lat="46.659623719979" lon="6.87451526915127">
        <time>2013-04-25T00:38:49.000+02:00</time>
      </trkpt>
      <trkpt lat="46.65919329867706" lon="6.874794126257111">
        <time>2013-04-25T00:38:49.000+02:00</time>
      </trkpt>
      <trkpt lat="46.65904995363865" lon="6.874913207102754">
        <time>2013-04-25T00:38:49.000+02:00</time>
      </trkpt>
      <trkpt lat="46.6589061574526" lon="6.874940834435628">
        <time>2013-04-25T00:38:49.000+02:00</time>
      </trkpt>
      <trkpt lat="46.65884293247755" lon="6.874889231023021">
        <time>2013-04-25T00:38:49.000+02:00</time>
      </trkpt>
      <trkpt lat="46.65864381083368" lon="6.874643062724822">
        <time>2013-04-25T00:38:49.000+02:00</time>
      </trkpt>
      <trkpt lat="46.658471868096" lon="6.874435808895873">
        <time>2013-04-25T00:38:49.000+02:00</time>
      </trkpt>
      <trkpt lat="46.658191271391416" lon="6.8740859714314615">
        <time>2013-04-25T00:38:49.000+02:00</time>
      </trkpt>
      <trkpt lat="46.65793785327518" lon="6.873775049537798">
        <time>2013-04-25T00:38:49.000+02:00</time>
      </trkpt>
      <trkpt lat="46.65776603813785" lon="6.873593930015776">
        <time>2013-04-25T00:38:49.000+02:00</time>
      </trkpt>
      <trkpt lat="46.65762269433812" lon="6.8737130108993085">
        <time>2013-04-25T00:38:49.000+02:00</time>
      </trkpt>
      <trkpt lat="46.65759596668732" lon="6.873765549871449">
        <time>2013-04-25T00:38:49.000+02:00</time>
      </trkpt>
      <trkpt lat="46.65747138792694" lon="6.874041214536512">
        <time>2013-04-25T00:38:49.000+02:00</time>
      </trkpt>
      <trkpt lat="46.657293481606025" lon="6.874448083304167">
        <time>2013-04-25T00:38:49.000+02:00</time>
      </trkpt>
      <trkpt lat="46.65716009925505" lon="6.874763031329082">
        <time>2013-04-25T00:38:49.000+02:00</time>
      </trkpt>
      <trkpt lat="46.657124375802326" lon="6.874815662966928">
        <time>2013-04-25T00:38:49.000+02:00</time>
      </trkpt>
      <trkpt lat="46.656998247996825" lon="6.874777781135506">
        <time>2013-04-25T00:38:49.000+02:00</time>
      </trkpt>
      <trkpt lat="46.65689942841156" lon="6.8748049396016455">
        <time>2013-04-25T00:38:49.000+02:00</time>
      </trkpt>
      <trkpt lat="46.65685477406691" lon="6.874870728786254">
        <time>2013-04-25T00:38:49.000+02:00</time>
      </trkpt>
      <trkpt lat="46.656703206675644" lon="6.875146667861338">
        <time>2013-04-25T00:38:49.000+02:00</time>
      </trkpt>
      <trkpt lat="46.65654309393267" lon="6.875514147809064">
        <time>2013-04-25T00:38:49.000+02:00</time>
      </trkpt>
      <trkpt lat="46.65638285134284" lon="6.875855497403164">
        <time>2013-04-25T00:38:49.000+02:00</time>
      </trkpt>
      <trkpt lat="46.65615970478776" lon="6.876210562828523">
        <time>2013-04-25T00:38:49.000+02:00</time>
      </trkpt>
      <trkpt lat="46.655882649456174" lon="6.876579249337279">
        <time>2013-04-25T00:38:49.000+02:00</time>
      </trkpt>
      <trkpt lat="46.65566759689309" lon="6.876751320372719">
        <time>2013-04-25T00:38:49.000+02:00</time>
      </trkpt>
      <trkpt lat="46.65546982830807" lon="6.876779500916044">
        <time>2013-04-25T00:38:49.000+02:00</time>
      </trkpt>
      <trkpt lat="46.65531742162701" lon="6.876885597748488">
        <time>2013-04-25T00:38:49.000+02:00</time>
      </trkpt>
      <trkpt lat="46.65520131711949" lon="6.877056639929602">
        <time>2013-04-25T00:38:49.000+02:00</time>
      </trkpt>
      <trkpt lat="46.655112069963565" lon="6.877201274121431">
        <time>2013-04-25T00:38:49.000+02:00</time>
      </trkpt>
      <trkpt lat="46.65499577249889" lon="6.877333123709285">
        <time>2013-04-25T00:38:49.000+02:00</time>
      </trkpt>
      <trkpt lat="46.65487998801612" lon="6.877569482549096">
        <time>2013-04-25T00:38:49.000+02:00</time>
      </trkpt>
      <trkpt lat="46.65475501538808" lon="6.877766742416451">
        <time>2013-04-25T00:38:49.000+02:00</time>
      </trkpt>
      <trkpt lat="46.654594317482285" lon="6.878016628432002">
        <time>2013-04-25T00:38:49.000+02:00</time>
      </trkpt>
      <trkpt lat="46.65450468466972" lon="6.87808287759023">
        <time>2013-04-25T00:38:49.000+02:00</time>
      </trkpt>
      <trkpt lat="46.65440528755416" lon="6.877992456241449">
        <time>2013-04-25T00:38:49.000+02:00</time>
      </trkpt>
      <trkpt lat="46.6542155525353" lon="6.877824584977759">
        <time>2013-04-25T00:38:49.000+02:00</time>
      </trkpt>
      <trkpt lat="46.65386326014313" lon="6.877527756878617">
        <time>2013-04-25T00:38:49.000+02:00</time>
      </trkpt>
      <trkpt lat="46.65382715057199" lon="6.877502002641581">
        <time>2013-04-25T00:38:49.000+02:00</time>
      </trkpt>
      <trkpt lat="46.65364596096901" lon="6.877242597681089">
        <time>2013-04-25T00:38:49.000+02:00</time>
      </trkpt>
      <trkpt lat="46.65358177415547" lon="6.87699504539546">
        <time>2013-04-25T00:38:49.000+02:00</time>
      </trkpt>
      <trkpt lat="46.65349895378691" lon="6.876617046382184">
        <time>2013-04-25T00:38:49.000+02:00</time>
      </trkpt>
      <trkpt lat="46.65335367917655" lon="6.87634420912026">
        <time>2013-04-25T00:38:49.000+02:00</time>
      </trkpt>
      <trkpt lat="46.65310091017586" lon="6.876163937415366">
        <time>2013-04-25T00:38:49.000+02:00</time>
      </trkpt>
      <trkpt lat="46.652758123357174" lon="6.875971538505977">
        <time>2013-04-25T00:38:49.000+02:00</time>
      </trkpt>
      <trkpt lat="46.65246050582806" lon="6.875817864129211">
        <time>2013-04-25T00:38:49.000+02:00</time>
      </trkpt>
      <trkpt lat="46.6521989980761" lon="6.8756899436610635">
        <time>2013-04-25T00:38:49.000+02:00</time>
      </trkpt>
      <trkpt lat="46.65187445856092" lon="6.875549615937526">
        <time>2013-04-25T00:38:49.000+02:00</time>
      </trkpt>
      <trkpt lat="46.65159502423651" lon="6.875434948131688">
        <time>2013-04-25T00:38:49.000+02:00</time>
      </trkpt>
      <trkpt lat="46.65136969050414" lon="6.875345846022867">
        <time>2013-04-25T00:38:49.000+02:00</time>
      </trkpt>
      <trkpt lat="46.65118933330611" lon="6.875256276904123">
        <time>2013-04-25T00:38:49.000+02:00</time>
      </trkpt>
      <trkpt lat="46.65102670902221" lon="6.875114270077831">
        <time>2013-04-25T00:38:49.000+02:00</time>
      </trkpt>
      <trkpt lat="46.65090951216373" lon="6.875063235474857">
        <time>2013-04-25T00:38:49.000+02:00</time>
      </trkpt>
      <trkpt lat="46.650801310602986" lon="6.875012107502587">
        <time>2013-04-25T00:38:49.000+02:00</time>
      </trkpt>
      <trkpt lat="46.65069304458317" lon="6.874947917022113">
        <time>2013-04-25T00:38:49.000+02:00</time>
      </trkpt>
      <trkpt lat="46.65060270472523" lon="6.874870476884747">
        <time>2013-04-25T00:38:49.000+02:00</time>
      </trkpt>
      <trkpt lat="46.650458199517296" lon="6.874754410796663">
        <time>2013-04-25T00:38:49.000+02:00</time>
      </trkpt>
      <trkpt lat="46.65029576801777" lon="6.874651595248952">
        <time>2013-04-25T00:38:49.000+02:00</time>
      </trkpt>
      <trkpt lat="46.65016944667045" lon="6.874574530824614">
        <time>2013-04-25T00:38:49.000+02:00</time>
      </trkpt>
      <trkpt lat="46.65001607481715" lon="6.874484685235856">
        <time>2013-04-25T00:38:49.000+02:00</time>
      </trkpt>
      <trkpt lat="46.64981759728218" lon="6.874369183612839">
        <time>2013-04-25T00:38:49.000+02:00</time>
      </trkpt>
      <trkpt lat="46.6496820868783" lon="6.874253026834652">
        <time>2013-04-25T00:38:49.000+02:00</time>
      </trkpt>
      <trkpt lat="46.6495556362047" lon="6.874149839341743">
        <time>2013-04-25T00:38:49.000+02:00</time>
      </trkpt>
      <trkpt lat="46.649438374369424" lon="6.8740857458084825">
        <time>2013-04-25T00:38:49.000+02:00</time>
      </trkpt>
      <trkpt lat="46.64934796937439" lon="6.873995246521538">
        <time>2013-04-25T00:38:49.000+02:00</time>
      </trkpt>
      <trkpt lat="46.64923937999071" lon="6.873865748000121">
        <time>2013-04-25T00:38:49.000+02:00</time>
      </trkpt>
      <trkpt lat="46.649121988855704" lon="6.873775530793992">
        <time>2013-04-25T00:38:49.000+02:00</time>
      </trkpt>
      <trkpt lat="46.64900466222838" lon="6.873698376282954">
        <time>2013-04-25T00:38:49.000+02:00</time>
      </trkpt>
      <trkpt lat="46.64891432151228" lon="6.873620940650961">
        <time>2013-04-25T00:38:49.000+02:00</time>
      </trkpt>
      <trkpt lat="46.648851095898266" lon="6.873569348315738">
        <time>2013-04-25T00:38:49.000+02:00</time>
      </trkpt>
      <trkpt lat="46.648760625885" lon="6.873465788630805">
        <time>2013-04-25T00:38:49.000+02:00</time>
      </trkpt>
      <trkpt lat="46.64864329904546" lon="6.873388635307372">
        <time>2013-04-25T00:38:49.000+02:00</time>
      </trkpt>
      <trkpt lat="46.64857107800386" lon="6.87333713736759">
        <time>2013-04-25T00:38:49.000+02:00</time>
      </trkpt>
      <trkpt lat="46.64847174171865" lon="6.87325979683791">
        <time>2013-04-25T00:38:49.000+02:00</time>
      </trkpt>
      <trkpt lat="46.648345160851235" lon="6.873130489690239">
        <time>2013-04-25T00:38:49.000+02:00</time>
      </trkpt>
      <trkpt lat="46.648227639815865" lon="6.873014151342274">
        <time>2013-04-25T00:38:49.000+02:00</time>
      </trkpt>
      <trkpt lat="46.64807407270415" lon="6.872885127172126">
        <time>2013-04-25T00:38:49.000+02:00</time>
      </trkpt>
      <trkpt lat="46.64792950076625" lon="6.872756009774019">
        <time>2013-04-25T00:38:49.000+02:00</time>
      </trkpt>
      <trkpt lat="46.647803048724185" lon="6.872652829125901">
        <time>2013-04-25T00:38:49.000+02:00</time>
      </trkpt>
      <trkpt lat="46.647685527197574" lon="6.872536492982299">
        <time>2013-04-25T00:38:49.000+02:00</time>
      </trkpt>
      <trkpt lat="46.64761330576683" lon="6.872484997092652">
        <time>2013-04-25T00:38:49.000+02:00</time>
      </trkpt>
      <trkpt lat="46.647513968897734" lon="6.8724076594981">
        <time>2013-04-25T00:38:49.000+02:00</time>
      </trkpt>
      <trkpt lat="46.64740544244011" lon="6.8722912304720545">
        <time>2013-04-25T00:38:49.000+02:00</time>
      </trkpt>
      <trkpt lat="46.647224629506766" lon="6.872110245005293">
        <time>2013-04-25T00:38:49.000+02:00</time>
      </trkpt>
      <trkpt lat="46.64702589042292" lon="6.871942510765532">
        <time>2013-04-25T00:38:49.000+02:00</time>
      </trkpt>
      <trkpt lat="46.64686306757408" lon="6.8717613394863815">
        <time>2013-04-25T00:38:49.000+02:00</time>
      </trkpt>
      <trkpt lat="46.64666426315166" lon="6.871580545914845">
        <time>2013-04-25T00:38:49.000+02:00</time>
      </trkpt>
      <trkpt lat="46.646501763917726" lon="6.8714646854171795">
        <time>2013-04-25T00:38:49.000+02:00</time>
      </trkpt>
      <trkpt lat="46.646402361505274" lon="6.871374289614491">
        <time>2013-04-25T00:38:49.000+02:00</time>
      </trkpt>
      <trkpt lat="46.64627564876057" lon="6.87121886854609">
        <time>2013-04-25T00:38:49.000+02:00</time>
      </trkpt>
      <trkpt lat="46.64596779638035" lon="6.870817163217712">
        <time>2013-04-25T00:38:49.000+02:00</time>
      </trkpt>
      <trkpt lat="46.64570530888679" lon="6.870493359746724">
        <time>2013-04-25T00:38:49.000+02:00</time>
      </trkpt>
      <trkpt lat="46.645542548688894" lon="6.870325258718122">
        <time>2013-04-25T00:38:49.000+02:00</time>
      </trkpt>
      <trkpt lat="46.64529844042136" lon="6.870079639774369">
        <time>2013-04-25T00:38:49.000+02:00</time>
      </trkpt>
      <trkpt lat="46.64526226415163" lon="6.870040833194441">
        <time>2013-04-25T00:38:49.000+02:00</time>
      </trkpt>
      <trkpt lat="46.64507258233712" lon="6.869886079560042">
        <time>2013-04-25T00:38:49.000+02:00</time>
      </trkpt>
      <trkpt lat="46.64509969832732" lon="6.869911918971507">
        <time>2013-04-25T00:38:49.000+02:00</time>
      </trkpt>
      <trkpt lat="46.64490069584428" lon="6.869691954172294">
        <time>2013-04-25T00:38:49.000+02:00</time>
      </trkpt>
      <trkpt lat="46.64455724725528" lon="6.869369013217848">
        <time>2013-04-25T00:38:49.000+02:00</time>
      </trkpt>
      <trkpt lat="46.64419561176138" lon="6.869007082099527">
        <time>2013-04-25T00:38:49.000+02:00</time>
      </trkpt>
      <trkpt lat="46.643906458888104" lon="6.868748887248178">
        <time>2013-04-25T00:38:49.000+02:00</time>
      </trkpt>
      <trkpt lat="46.64372544478773" lon="6.868528742269131">
        <time>2013-04-25T00:38:49.000+02:00</time>
      </trkpt>
      <trkpt lat="46.64365230890425" lon="6.868294401443603">
        <time>2013-04-25T00:38:49.000+02:00</time>
      </trkpt>
      <trkpt lat="46.64345330328388" lon="6.868074448483784">
        <time>2013-04-25T00:38:49.000+02:00</time>
      </trkpt>
      <trkpt lat="46.64315593589129" lon="6.867973087539205">
        <time>2013-04-25T00:38:49.000+02:00</time>
      </trkpt>
      <trkpt lat="46.64284109968594" lon="6.867976403697952">
        <time>2013-04-25T00:38:49.000+02:00</time>
      </trkpt>
      <trkpt lat="46.642661519432295" lon="6.868043602449856">
        <time>2013-04-25T00:38:49.000+02:00</time>
      </trkpt>
      <trkpt lat="46.64270877805516" lon="6.868500255925726">
        <time>2013-04-25T00:38:49.000+02:00</time>
      </trkpt>
      <trkpt lat="46.64289181112912" lon="6.869125282117149">
        <time>2013-04-25T00:38:49.000+02:00</time>
      </trkpt>
      <trkpt lat="46.64301135322718" lon="6.869646486896796">
        <time>2013-04-25T00:38:49.000+02:00</time>
      </trkpt>
      <trkpt lat="46.64298547277971" lon="6.8698688046626994">
        <time>2013-04-25T00:38:49.000+02:00</time>
      </trkpt>
      <trkpt lat="46.642743119182306" lon="6.8699758406144475">
        <time>2013-04-25T00:38:49.000+02:00</time>
      </trkpt>
      <trkpt lat="46.64229237783554" lon="6.8697846511151885">
        <time>2013-04-25T00:38:49.000+02:00</time>
      </trkpt>
      <trkpt lat="46.6418593015349" lon="6.869527972987484">
        <time>2013-04-25T00:38:49.000+02:00</time>
      </trkpt>
      <trkpt lat="46.64145386139812" lon="6.8694016201256805">
        <time>2013-04-25T00:38:49.000+02:00</time>
      </trkpt>
      <trkpt lat="46.641074756146295" lon="6.8691443817481534">
        <time>2013-04-25T00:38:49.000+02:00</time>
      </trkpt>
      <trkpt lat="46.64068730620944" lon="6.8690178444547225">
        <time>2013-04-25T00:38:49.000+02:00</time>
      </trkpt>
      <trkpt lat="46.64019171685795" lon="6.86885326354656">
        <time>2013-04-25T00:38:49.000+02:00</time>
      </trkpt>
      <trkpt lat="46.639767633727395" lon="6.868596508206669">
        <time>2013-04-25T00:39:49.000+02:00</time>
      </trkpt>
      <trkpt lat="46.63927126144521" lon="6.868275214603428">
        <time>2013-04-25T00:40:49.000+02:00</time>
      </trkpt>
      <trkpt lat="46.638774105291425" lon="6.867797208991444">
        <time>2013-04-25T00:41:49.000+02:00</time>
      </trkpt>
      <trkpt lat="46.63845874692082" lon="6.867696047908328">
        <time>2013-04-25T00:41:49.000+02:00</time>
      </trkpt>
      <trkpt lat="46.63818725512263" lon="6.867372399377861">
        <time>2013-04-25T00:41:49.000+02:00</time>
      </trkpt>
      <trkpt lat="46.637754369276124" lon="6.867154938779335">
        <time>2013-04-25T00:41:49.000+02:00</time>
      </trkpt>
      <trkpt lat="46.637393706984966" lon="6.866988960345458">
        <time>2013-04-25T00:41:49.000+02:00</time>
      </trkpt>
      <trkpt lat="46.63712371661134" lon="6.866965688521173">
        <time>2013-04-25T00:41:49.000+02:00</time>
      </trkpt>
      <trkpt lat="46.63712142844066" lon="6.866508608639268">
        <time>2013-04-25T00:42:49.000+02:00</time>
      </trkpt>
      <trkpt lat="46.637299830226496" lon="6.866206341259698">
        <time>2013-04-25T00:42:49.000+02:00</time>
      </trkpt>
      <trkpt lat="46.637568577227995" lon="6.865981478255937">
        <time>2013-04-25T00:43:49.000+02:00</time>
      </trkpt>
      <trkpt lat="46.63813462776422" lon="6.865844892142878">
        <time>2013-04-25T00:44:49.000+02:00</time>
      </trkpt>
      <trkpt lat="46.63826955758015" lon="6.865843465744451">
        <time>2013-04-25T00:44:49.000+02:00</time>
      </trkpt>
      <trkpt lat="46.63840396351662" lon="6.865737561470819">
        <time>2013-04-25T00:44:49.000+02:00</time>
      </trkpt>
      <trkpt lat="46.63824060658568" lon="6.865451960202974">
        <time>2013-04-25T00:44:49.000+02:00</time>
      </trkpt>
      <trkpt lat="46.63813233510134" lon="6.86538780376588">
        <time>2013-04-25T00:44:49.000+02:00</time>
      </trkpt>
      <trkpt lat="46.637878827388924" lon="6.86506397833211">
        <time>2013-04-25T00:44:49.000+02:00</time>
      </trkpt>
      <trkpt lat="46.637831226875484" lon="6.864542070674143">
        <time>2013-04-25T00:44:49.000+02:00</time>
      </trkpt>
      <trkpt lat="46.63785703129505" lon="6.8643067119496735">
        <time>2013-04-25T00:44:49.000+02:00</time>
      </trkpt>
      <trkpt lat="46.637900037581524" lon="6.863914446910042">
        <time>2013-04-25T00:44:49.000+02:00</time>
      </trkpt>
      <trkpt lat="46.63794356842649" lon="6.863626658202586">
        <time>2013-04-25T00:44:49.000+02:00</time>
      </trkpt>
      <trkpt lat="46.6378966191835" lon="6.863235347262506">
        <time>2013-04-25T00:44:49.000+02:00</time>
      </trkpt>
      <trkpt lat="46.63775951793734" lon="6.862805814193786">
        <time>2013-04-25T00:44:49.000+02:00</time>
      </trkpt>
      <trkpt lat="46.637712565877415" lon="6.8624145052984975">
        <time>2013-04-25T00:44:49.000+02:00</time>
      </trkpt>
      <trkpt lat="46.63771058906538" lon="6.8620227184436215">
        <time>2013-04-25T00:44:49.000+02:00</time>
      </trkpt>
      <trkpt lat="46.63768228448923" lon="6.861761814537094">
        <time>2013-04-25T00:44:49.000+02:00</time>
      </trkpt>
      <trkpt lat="46.637483727961076" lon="6.861633326435044">
        <time>2013-04-25T00:44:49.000+02:00</time>
      </trkpt>
      <trkpt lat="46.63716823215246" lon="6.861506084846589">
        <time>2013-04-25T00:44:49.000+02:00</time>
      </trkpt>
      <trkpt lat="46.63691590138525" lon="6.861417352013164">
        <time>2013-04-25T00:44:49.000+02:00</time>
      </trkpt>
      <trkpt lat="46.63689797673385" lon="6.861430603031865">
        <time>2013-04-25T00:44:49.000+02:00</time>
      </trkpt>
      <trkpt lat="46.63697886861142" lon="6.861416681222025">
        <time>2013-04-25T00:44:49.000+02:00</time>
      </trkpt>
      <trkpt lat="46.63674479237889" lon="6.861379994741856">
        <time>2013-04-25T00:44:49.000+02:00</time>
      </trkpt>
      <trkpt lat="46.63642082894202" lon="6.8613573262143355">
        <time>2013-04-25T00:44:49.000+02:00</time>
      </trkpt>
      <trkpt lat="46.635970733044665" lon="6.861296822286378">
        <time>2013-04-25T00:44:49.000+02:00</time>
      </trkpt>
      <trkpt lat="46.635745520067786" lon="6.86123392298499">
        <time>2013-04-25T00:44:49.000+02:00</time>
      </trkpt>
      <trkpt lat="46.63531367876578" lon="6.861225465034897">
        <time>2013-04-25T00:44:49.000+02:00</time>
      </trkpt>
      <trkpt lat="46.63483732287875" lon="6.8613088985692565">
        <time>2013-04-25T00:44:49.000+02:00</time>
      </trkpt>
      <trkpt lat="46.63465741649594" lon="6.8613108153926525">
        <time>2013-04-25T00:44:49.000+02:00</time>
      </trkpt>
      <trkpt lat="46.63418932988711" lon="6.861250505522068">
        <time>2013-04-25T00:44:49.000+02:00</time>
      </trkpt>
      <trkpt lat="46.63399130084758" lon="6.861226496890357">
        <time>2013-04-25T00:44:49.000+02:00</time>
      </trkpt>
      <trkpt lat="46.633874559708765" lon="6.861266918887834">
        <time>2013-04-25T00:44:49.000+02:00</time>
      </trkpt>
      <trkpt lat="46.63358710546694" lon="6.861348337355874">
        <time>2013-04-25T00:44:49.000+02:00</time>
      </trkpt>
      <trkpt lat="46.63334396784621" lon="6.861298690801774">
        <time>2013-04-25T00:44:49.000+02:00</time>
      </trkpt>
      <trkpt lat="46.63299222623932" lon="6.861119610659809">
        <time>2013-04-25T00:44:49.000+02:00</time>
      </trkpt>
      <trkpt lat="46.63281159353645" lon="6.860977885895142">
        <time>2013-04-25T00:44:49.000+02:00</time>
      </trkpt>
      <trkpt lat="46.63256772919649" lon="6.860784600216555">
        <time>2013-04-25T00:44:49.000+02:00</time>
      </trkpt>
      <trkpt lat="46.632233514820136" lon="6.860513926419151">
        <time>2013-04-25T00:44:49.000+02:00</time>
      </trkpt>
      <trkpt lat="46.63195333783252" lon="6.86025573805443">
        <time>2013-04-25T00:44:49.000+02:00</time>
      </trkpt>
      <trkpt lat="46.63179036399211" lon="6.860048536178989">
        <time>2013-04-25T00:44:49.000+02:00</time>
      </trkpt>
      <trkpt lat="46.631645314246086" lon="6.85982808529831">
        <time>2013-04-25T00:44:49.000+02:00</time>
      </trkpt>
      <trkpt lat="46.63155503019483" lon="6.85976375575469">
        <time>2013-04-25T00:44:49.000+02:00</time>
      </trkpt>
      <trkpt lat="46.63146494464667" lon="6.859738600577321">
        <time>2013-04-25T00:44:49.000+02:00</time>
      </trkpt>
      <trkpt lat="46.631356736089124" lon="6.8596875216360225">
        <time>2013-04-25T00:44:49.000+02:00</time>
      </trkpt>
      <trkpt lat="46.63129330553088" lon="6.859596788305864">
        <time>2013-04-25T00:44:49.000+02:00</time>
      </trkpt>
      <trkpt lat="46.63115784613902" lon="6.859493766289838">
        <time>2013-04-25T00:44:49.000+02:00</time>
      </trkpt>
      <trkpt lat="46.63109408432653" lon="6.859337743717468">
        <time>2013-04-25T00:44:49.000+02:00</time>
      </trkpt>
      <trkpt lat="46.63105697703211" lon="6.859116143190797">
        <time>2013-04-25T00:44:49.000+02:00</time>
      </trkpt>
      <trkpt lat="46.6309744950387" lon="6.858816676561882">
        <time>2013-04-25T00:44:49.000+02:00</time>
      </trkpt>
      <trkpt lat="46.63093778455643" lon="6.858673424414033">
        <time>2013-04-25T00:44:49.000+02:00</time>
      </trkpt>
      <trkpt lat="46.630838239291045" lon="6.858556962330933">
        <time>2013-04-25T00:44:49.000+02:00</time>
      </trkpt>
      <trkpt lat="46.63069391628393" lon="6.8584801558201125">
        <time>2013-04-25T00:44:49.000+02:00</time>
      </trkpt>
      <trkpt lat="46.630621688433585" lon="6.85842869487301">
        <time>2013-04-25T00:44:49.000+02:00</time>
      </trkpt>
      <trkpt lat="46.630540465240784" lon="6.85837733038462">
        <time>2013-04-25T00:44:49.000+02:00</time>
      </trkpt>
      <trkpt lat="46.630423194408614" lon="6.858313293571568">
        <time>2013-04-25T00:44:49.000+02:00</time>
      </trkpt>
      <trkpt lat="46.630341971162885" lon="6.858261929444907">
        <time>2013-04-25T00:44:49.000+02:00</time>
      </trkpt>
      <trkpt lat="46.63018832083734" lon="6.858119932076202">
        <time>2013-04-25T00:44:49.000+02:00</time>
      </trkpt>
      <trkpt lat="46.630070983487066" lon="6.858042838526036">
        <time>2013-04-25T00:44:49.000+02:00</time>
      </trkpt>
      <trkpt lat="46.62996230948042" lon="6.857900360493654">
        <time>2013-04-25T00:44:49.000+02:00</time>
      </trkpt>
      <trkpt lat="46.62988055484604" lon="6.857744536098909">
        <time>2013-04-25T00:44:49.000+02:00</time>
      </trkpt>
      <trkpt lat="46.629807795316935" lon="6.857588615724123">
        <time>2013-04-25T00:44:49.000+02:00</time>
      </trkpt>
      <trkpt lat="46.629707983176246" lon="6.857419927575858">
        <time>2013-04-25T00:44:49.000+02:00</time>
      </trkpt>
      <trkpt lat="46.62963515674076" lon="6.857250950529464">
        <time>2013-04-25T00:44:49.000+02:00</time>
      </trkpt>
      <trkpt lat="46.62951708752346" lon="6.8570302263042215">
        <time>2013-04-25T00:44:49.000+02:00</time>
      </trkpt>
      <trkpt lat="46.629308466018486" lon="6.856692951103462">
        <time>2013-04-25T00:44:49.000+02:00</time>
      </trkpt>
      <trkpt lat="46.62906399536863" lon="6.856382180056977">
        <time>2013-04-25T00:44:49.000+02:00</time>
      </trkpt>
      <trkpt lat="46.62872010915246" lon="6.855981073851812">
        <time>2013-04-25T00:44:49.000+02:00</time>
      </trkpt>
      <trkpt lat="46.62849369383254" lon="6.855683173195516">
        <time>2013-04-25T00:44:49.000+02:00</time>
      </trkpt>
      <trkpt lat="46.62835803091488" lon="6.8555409944254615">
        <time>2013-04-25T00:44:49.000+02:00</time>
      </trkpt>
      <trkpt lat="46.62804219475633" lon="6.8553485237340785">
        <time>2013-04-25T00:44:49.000+02:00</time>
      </trkpt>
      <trkpt lat="46.627754344589135" lon="6.855351621970652">
        <time>2013-04-25T00:44:49.000+02:00</time>
      </trkpt>
      <trkpt lat="46.62757503829008" lon="6.855471072306143">
        <time>2013-04-25T00:44:49.000+02:00</time>
      </trkpt>
      <trkpt lat="46.627296650055484" lon="6.855565472338318">
        <time>2013-04-25T00:44:49.000+02:00</time>
      </trkpt>
      <trkpt lat="46.62708995769432" lon="6.855606869305972">
        <time>2013-04-25T00:44:49.000+02:00</time>
      </trkpt>
      <trkpt lat="46.62673041154546" lon="6.8556629679188115">
        <time>2013-04-25T00:44:49.000+02:00</time>
      </trkpt>
      <trkpt lat="46.626344079312084" lon="6.855758526480805">
        <time>2013-04-25T00:44:49.000+02:00</time>
      </trkpt>
      <trkpt lat="46.62625425938673" lon="6.855785607546155">
        <time>2013-04-25T00:44:49.000+02:00</time>
      </trkpt>
      <trkpt lat="46.62586786041979" lon="6.85586810769593">
        <time>2013-04-25T00:44:49.000+02:00</time>
      </trkpt>
      <trkpt lat="46.62555249123219" lon="6.855767040279764">
        <time>2013-04-25T00:44:49.000+02:00</time>
      </trkpt>
      <trkpt lat="46.62544521364895" lon="6.855898767157965">
        <time>2013-04-25T00:44:49.000+02:00</time>
      </trkpt>
      <trkpt lat="46.625436484787045" lon="6.855951090244397">
        <time>2013-04-25T00:44:49.000+02:00</time>
      </trkpt>
      <trkpt lat="46.62534879551128" lon="6.856395980759587">
        <time>2013-04-25T00:44:49.000+02:00</time>
      </trkpt>
      <trkpt lat="46.62526077193289" lon="6.85677558708614">
        <time>2013-04-25T00:44:49.000+02:00</time>
      </trkpt>
      <trkpt lat="46.625163552342265" lon="6.857116119113544">
        <time>2013-04-25T00:44:49.000+02:00</time>
      </trkpt>
      <trkpt lat="46.62508405660796" lon="6.857404230958369">
        <time>2013-04-25T00:44:49.000+02:00</time>
      </trkpt>
      <trkpt lat="46.62504027576995" lon="6.85763973026697">
        <time>2013-04-25T00:44:49.000+02:00</time>
      </trkpt>
      <trkpt lat="46.62503267489748" lon="6.857914013102107">
        <time>2013-04-25T00:44:49.000+02:00</time>
      </trkpt>
      <trkpt lat="46.62505219203756" lon="6.858214119833406">
        <time>2013-04-25T00:44:49.000+02:00</time>
      </trkpt>
      <trkpt lat="46.62499021990036" lon="6.858410641488443">
        <time>2013-04-25T00:44:49.000+02:00</time>
      </trkpt>
      <trkpt lat="46.62484702428519" lon="6.858555803341214">
        <time>2013-04-25T00:44:49.000+02:00</time>
      </trkpt>
      <trkpt lat="46.624766994622505" lon="6.858739459923964">
        <time>2013-04-25T00:44:49.000+02:00</time>
      </trkpt>
      <trkpt lat="46.62469702013186" lon="6.8591319223976965">
        <time>2013-04-25T00:44:49.000+02:00</time>
      </trkpt>
      <trkpt lat="46.62459086438484" lon="6.8594855991624355">
        <time>2013-04-25T00:44:49.000+02:00</time>
      </trkpt>
      <trkpt lat="46.624484641373186" lon="6.85982621817357">
        <time>2013-04-25T00:44:49.000+02:00</time>
      </trkpt>
      <trkpt lat="46.62437702831212" lon="6.8598926527028175">
        <time>2013-04-25T00:44:49.000+02:00</time>
      </trkpt>
      <trkpt lat="46.624034610521974" lon="6.859778796573884">
        <time>2013-04-25T00:44:49.000+02:00</time>
      </trkpt>
      <trkpt lat="46.623367765228096" lon="6.8595508964125536">
        <time>2013-04-25T00:45:49.000+02:00</time>
      </trkpt>
      <trkpt lat="46.6231064374121" lon="6.859462291450599">
        <time>2013-04-25T00:45:49.000+02:00</time>
      </trkpt>
      <trkpt lat="46.62296224738388" lon="6.8594116054933965">
        <time>2013-04-25T00:45:49.000+02:00</time>
      </trkpt>
      <trkpt lat="46.62280939309407" lon="6.8594262957544005">
        <time>2013-04-25T00:45:49.000+02:00</time>
      </trkpt>
      <trkpt lat="46.622647212399755" lon="6.859375802453264">
        <time>2013-04-25T00:45:49.000+02:00</time>
      </trkpt>
      <trkpt lat="46.62260210333912" lon="6.859350171335909">
        <time>2013-04-25T00:45:49.000+02:00</time>
      </trkpt>
      <trkpt lat="46.62249382832374" lon="6.8592860456516895">
        <time>2013-04-25T00:45:49.000+02:00</time>
      </trkpt>
      <trkpt lat="46.62239468106623" lon="6.8592479357792735">
        <time>2013-04-25T00:45:49.000+02:00</time>
      </trkpt>
      <trkpt lat="46.6222775431476" lon="6.859210018382276">
        <time>2013-04-25T00:45:49.000+02:00</time>
      </trkpt>
      <trkpt lat="46.62208824388997" lon="6.859133703180149">
        <time>2013-04-25T00:45:49.000+02:00</time>
      </trkpt>
      <trkpt lat="46.62191713398753" lon="6.859096363362309">
        <time>2013-04-25T00:45:49.000+02:00</time>
      </trkpt>
      <trkpt lat="46.62176408097408" lon="6.859071887104743">
        <time>2013-04-25T00:45:49.000+02:00</time>
      </trkpt>
      <trkpt lat="46.62162008953424" lon="6.859060370465349">
        <time>2013-04-25T00:45:49.000+02:00</time>
      </trkpt>
      <trkpt lat="46.62149415499633" lon="6.8590617171438035">
        <time>2013-04-25T00:45:49.000+02:00</time>
      </trkpt>
      <trkpt lat="46.6214131970786" lon="6.859062582862327">
        <time>2013-04-25T00:45:49.000+02:00</time>
      </trkpt>
      <trkpt lat="46.62127833346912" lon="6.859077081311737">
        <time>2013-04-25T00:45:49.000+02:00</time>
      </trkpt>
      <trkpt lat="46.62116132799892" lon="6.859065276192123">
        <time>2013-04-25T00:45:49.000+02:00</time>
      </trkpt>
      <trkpt lat="46.62102633187797" lon="6.859053663506749">
        <time>2013-04-25T00:45:49.000+02:00</time>
      </trkpt>
      <trkpt lat="46.62090926014552" lon="6.859028802990739">
        <time>2013-04-25T00:45:49.000+02:00</time>
      </trkpt>
      <trkpt lat="46.620810245316896" lon="6.859016805661336">
        <time>2013-04-25T00:45:49.000+02:00</time>
      </trkpt>
      <trkpt lat="46.620729154873004" lon="6.8589915605190575">
        <time>2013-04-25T00:45:49.000+02:00</time>
      </trkpt>
      <trkpt lat="46.62067491786146" lon="6.858939915945464">
        <time>2013-04-25T00:45:49.000+02:00</time>
      </trkpt>
      <trkpt lat="46.62062974242507" lon="6.858901230691329">
        <time>2013-04-25T00:45:49.000+02:00</time>
      </trkpt>
      <trkpt lat="46.62058456697546" lon="6.858862545501795">
        <time>2013-04-25T00:45:49.000+02:00</time>
      </trkpt>
      <trkpt lat="46.62052080426165" lon="6.858706554163437">
        <time>2013-04-25T00:45:49.000+02:00</time>
      </trkpt>
      <trkpt lat="46.620511676342666" lon="6.858680539600684">
        <time>2013-04-25T00:45:49.000+02:00</time>
      </trkpt>
      <trkpt lat="46.62045697501976" lon="6.858537507800646">
        <time>2013-04-25T00:45:49.000+02:00</time>
      </trkpt>
      <trkpt lat="46.620402273517286" lon="6.85839447628988">
        <time>2013-04-25T00:45:49.000+02:00</time>
      </trkpt>
      <trkpt lat="46.62032078490008" lon="6.8582909001162315">
        <time>2013-04-25T00:45:49.000+02:00</time>
      </trkpt>
      <trkpt lat="46.62025748589572" lon="6.85822629761684">
        <time>2013-04-25T00:45:49.000+02:00</time>
      </trkpt>
      <trkpt lat="46.62014901115296" lon="6.85812301100803">
        <time>2013-04-25T00:45:49.000+02:00</time>
      </trkpt>
      <trkpt lat="46.620049465264756" lon="6.8580065731584945">
        <time>2013-04-25T00:45:49.000+02:00</time>
      </trkpt>
      <trkpt lat="46.61994079115151" lon="6.857864121586957">
        <time>2013-04-25T00:45:49.000+02:00</time>
      </trkpt>
      <trkpt lat="46.619877491904035" lon="6.857799520040609">
        <time>2013-04-25T00:45:49.000+02:00</time>
      </trkpt>
      <trkpt lat="46.61983238248217" lon="6.857773891549322">
        <time>2013-04-25T00:45:49.000+02:00</time>
      </trkpt>
      <trkpt lat="46.61968819167728" lon="6.85772321315773">
        <time>2013-04-25T00:45:49.000+02:00</time>
      </trkpt>
      <trkpt lat="46.619570986820605" lon="6.857672245780456">
        <time>2013-04-25T00:45:49.000+02:00</time>
      </trkpt>
      <trkpt lat="46.61950782030348" lon="6.857633755223998">
        <time>2013-04-25T00:45:49.000+02:00</time>
      </trkpt>
      <trkpt lat="46.6193635630085" lon="6.857570022382655">
        <time>2013-04-25T00:45:49.000+02:00</time>
      </trkpt>
      <trkpt lat="46.6191921868353" lon="6.857480469046405">
        <time>2013-04-25T00:45:49.000+02:00</time>
      </trkpt>
      <trkpt lat="46.619047863007864" lon="6.8574036819347235">
        <time>2013-04-25T00:45:49.000+02:00</time>
      </trkpt>
      <trkpt lat="46.61888541556896" lon="6.857300978159455">
        <time>2013-04-25T00:45:49.000+02:00</time>
      </trkpt>
      <trkpt lat="46.6187139062429" lon="6.857185316526877">
        <time>2013-04-25T00:45:49.000+02:00</time>
      </trkpt>
      <trkpt lat="46.61852427318044" lon="6.857043738813479">
        <time>2013-04-25T00:45:49.000+02:00</time>
      </trkpt>
      <trkpt lat="46.618379616559736" lon="6.856901679369944">
        <time>2013-04-25T00:45:49.000+02:00</time>
      </trkpt>
      <trkpt lat="46.61820790726985" lon="6.856746855542482">
        <time>2013-04-25T00:45:49.000+02:00</time>
      </trkpt>
      <trkpt lat="46.61810835996575" lon="6.856630424402077">
        <time>2013-04-25T00:45:49.000+02:00</time>
      </trkpt>
      <trkpt lat="46.61795477405214" lon="6.856501518553891">
        <time>2013-04-25T00:45:49.000+02:00</time>
      </trkpt>
      <trkpt lat="46.617855559285786" lon="6.856450362218194">
        <time>2013-04-25T00:45:49.000+02:00</time>
      </trkpt>
      <trkpt lat="46.61775694347587" lon="6.856516698711589">
        <time>2013-04-25T00:45:49.000+02:00</time>
      </trkpt>
      <trkpt lat="46.61764933230284" lon="6.856583131559355">
        <time>2013-04-25T00:45:49.000+02:00</time>
      </trkpt>
      <trkpt lat="46.617514934705554" lon="6.856689017937197">
        <time>2013-04-25T00:45:49.000+02:00</time>
      </trkpt>
      <trkpt lat="46.617416518305966" lon="6.856794517546617">
        <time>2013-04-25T00:45:49.000+02:00</time>
      </trkpt>
      <trkpt lat="46.61735414960782" lon="6.856912685241632">
        <time>2013-04-25T00:45:49.000+02:00</time>
      </trkpt>
      <trkpt lat="46.61725593246118" lon="6.857057347984183">
        <time>2013-04-25T00:45:49.000+02:00</time>
      </trkpt>
      <trkpt lat="46.61715784806362" lon="6.857228119390324">
        <time>2013-04-25T00:45:49.000+02:00</time>
      </trkpt>
      <trkpt lat="46.617140256177855" lon="6.857306639907567">
        <time>2013-04-25T00:45:49.000+02:00</time>
      </trkpt>
      <trkpt lat="46.617140389087126" lon="6.857332749088207">
        <time>2013-04-25T00:45:49.000+02:00</time>
      </trkpt>
      <trkpt lat="46.61710513868133" lon="6.857476735370918">
        <time>2013-04-25T00:45:49.000+02:00</time>
      </trkpt>
      <trkpt lat="46.61710567012677" lon="6.857581172028176">
        <time>2013-04-25T00:45:49.000+02:00</time>
      </trkpt>
      <trkpt lat="46.61709687406903" lon="6.857620432197949">
        <time>2013-04-25T00:45:49.000+02:00</time>
      </trkpt>
      <trkpt lat="46.617105935813605" lon="6.857633390357578">
        <time>2013-04-25T00:45:49.000+02:00</time>
      </trkpt>
      <trkpt lat="46.617106732730605" lon="6.857790045348912">
        <time>2013-04-25T00:45:49.000+02:00</time>
      </trkpt>
      <trkpt lat="46.61708933962635" lon="6.857907729345485">
        <time>2013-04-25T00:45:49.000+02:00</time>
      </trkpt>
      <trkpt lat="46.61709873324874" lon="6.85798596045664">
        <time>2013-04-25T00:45:49.000+02:00</time>
      </trkpt>
      <trkpt lat="46.61714430722091" lon="6.858102969975395">
        <time>2013-04-25T00:45:49.000+02:00</time>
      </trkpt>
      <trkpt lat="46.61723479134844" lon="6.858206443460428">
        <time>2013-04-25T00:45:49.000+02:00</time>
      </trkpt>
      <trkpt lat="46.61730721838845" lon="6.858297055276731">
        <time>2013-04-25T00:45:49.000+02:00</time>
      </trkpt>
      <trkpt lat="46.61737984434643" lon="6.858426831283988">
        <time>2013-04-25T00:45:49.000+02:00</time>
      </trkpt>
      <trkpt lat="46.617443541142926" lon="6.858569758572433">
        <time>2013-04-25T00:45:49.000+02:00</time>
      </trkpt>
      <trkpt lat="46.61750730405439" lon="6.858725740878056">
        <time>2013-04-25T00:45:49.000+02:00</time>
      </trkpt>
      <trkpt lat="46.6175352842688" lon="6.8589212724695034">
        <time>2013-04-25T00:45:49.000+02:00</time>
      </trkpt>
      <trkpt lat="46.617473973298566" lon="6.859248312740629">
        <time>2013-04-25T00:45:49.000+02:00</time>
      </trkpt>
      <trkpt lat="46.617377143420796" lon="6.859667119215783">
        <time>2013-04-25T00:45:49.000+02:00</time>
      </trkpt>
      <trkpt lat="46.61730683498335" lon="6.859994253714796">
        <time>2013-04-25T00:45:49.000+02:00</time>
      </trkpt>
      <trkpt lat="46.6172369883466" lon="6.860412769685682">
        <time>2013-04-25T00:45:49.000+02:00</time>
      </trkpt>
      <trkpt lat="46.61720193229599" lon="6.860595918047395">
        <time>2013-04-25T00:45:49.000+02:00</time>
      </trkpt>
      <trkpt lat="46.61705959252643" lon="6.860910762694145">
        <time>2013-04-25T00:45:49.000+02:00</time>
      </trkpt>
      <trkpt lat="46.61680963796405" lon="6.861292028135803">
        <time>2013-04-25T00:45:49.000+02:00</time>
      </trkpt>
      <trkpt lat="46.61673800531652" lon="6.861358067120361">
        <time>2013-04-25T00:45:49.000+02:00</time>
      </trkpt>
      <trkpt lat="46.616747396571334" lon="6.8614362983231025">
        <time>2013-04-25T00:45:49.000+02:00</time>
      </trkpt>
      <trkpt lat="46.61673879711526" lon="6.861514721102384">
        <time>2013-04-25T00:45:49.000+02:00</time>
      </trkpt>
      <trkpt lat="46.61674845211181" lon="6.861645170337981">
        <time>2013-04-25T00:45:49.000+02:00</time>
      </trkpt>
      <trkpt lat="46.616641497386624" lon="6.861842136502262">
        <time>2013-04-25T00:45:49.000+02:00</time>
      </trkpt>
      <trkpt lat="46.61633704053502" lon="6.8621195334109215">
        <time>2013-04-25T00:45:49.000+02:00</time>
      </trkpt>
      <trkpt lat="46.616158122351365" lon="6.862317262262322">
        <time>2013-04-25T00:45:49.000+02:00</time>
      </trkpt>
      <trkpt lat="46.61606016179123" lon="6.862514129341818">
        <time>2013-04-25T00:45:49.000+02:00</time>
      </trkpt>
      <trkpt lat="46.6160073092121" lon="6.86273662648365">
        <time>2013-04-25T00:45:49.000+02:00</time>
      </trkpt>
      <trkpt lat="46.615963780554424" lon="6.863024299225308">
        <time>2013-04-25T00:45:49.000+02:00</time>
      </trkpt>
      <trkpt lat="46.61593764985492" lon="6.863194291786711">
        <time>2013-04-25T00:45:49.000+02:00</time>
      </trkpt>
      <trkpt lat="46.61586779146486" lon="6.863612793038144">
        <time>2013-04-25T00:45:49.000+02:00</time>
      </trkpt>
      <trkpt lat="46.61579740600165" lon="6.863926859011698">
        <time>2013-04-25T00:45:49.000+02:00</time>
      </trkpt>
      <trkpt lat="46.6157266256736" lon="6.864162598621048">
        <time>2013-04-25T00:45:49.000+02:00</time>
      </trkpt>
      <trkpt lat="46.61566451195037" lon="6.864332971104974">
        <time>2013-04-25T00:45:49.000+02:00</time>
      </trkpt>
      <trkpt lat="46.61556661353473" lon="6.8645428869592955">
        <time>2013-04-25T00:45:49.000+02:00</time>
      </trkpt>
      <trkpt lat="46.615540218126085" lon="6.864660660686022">
        <time>2013-04-25T00:45:49.000+02:00</time>
      </trkpt>
      <trkpt lat="46.61541533311017" lon="6.864870861108386">
        <time>2013-04-25T00:45:49.000+02:00</time>
      </trkpt>
      <trkpt lat="46.61523654127685" lon="6.8650946857753885">
        <time>2013-04-25T00:45:49.000+02:00</time>
      </trkpt>
      <trkpt lat="46.61508421064269" lon="6.865213790711498">
        <time>2013-04-25T00:45:49.000+02:00</time>
      </trkpt>
      <trkpt lat="46.61469070934794" lon="6.8656748678963755">
        <time>2013-04-25T00:45:49.000+02:00</time>
      </trkpt>
      <trkpt lat="46.61445820580525" lon="6.865951472975008">
        <time>2013-04-25T00:45:49.000+02:00</time>
      </trkpt>
      <trkpt lat="46.61427067825733" lon="6.866227600743367">
        <time>2013-04-25T00:45:49.000+02:00</time>
      </trkpt>
      <trkpt lat="46.614146117377146" lon="6.866503062013788">
        <time>2013-04-25T00:45:49.000+02:00</time>
      </trkpt>
      <trkpt lat="46.614084261672666" lon="6.866725642293485">
        <time>2013-04-25T00:45:49.000+02:00</time>
      </trkpt>
      <trkpt lat="46.6138788722652" lon="6.867028062816264">
        <time>2013-04-25T00:45:49.000+02:00</time>
      </trkpt>
      <trkpt lat="46.61370020681287" lon="6.867277981544939">
        <time>2013-04-25T00:45:49.000+02:00</time>
      </trkpt>
      <trkpt lat="46.6134937059657" lon="6.867358484528453">
        <time>2013-04-25T00:45:49.000+02:00</time>
      </trkpt>
      <trkpt lat="46.61344866398443" lon="6.867345904802402">
        <time>2013-04-25T00:45:49.000+02:00</time>
      </trkpt>
      <trkpt lat="46.61323258001525" lon="6.8673090189967">
        <time>2013-04-25T00:45:49.000+02:00</time>
      </trkpt>
      <trkpt lat="46.61293553801427" lon="6.867272986781391">
        <time>2013-04-25T00:45:49.000+02:00</time>
      </trkpt>
      <trkpt lat="46.6125846546196" lon="6.867263630863808">
        <time>2013-04-25T00:45:49.000+02:00</time>
      </trkpt>
      <trkpt lat="46.612494766579985" lon="6.867277632458626">
        <time>2013-04-25T00:45:49.000+02:00</time>
      </trkpt>
      <trkpt lat="46.61214460155631" lon="6.867411863958657">
        <time>2013-04-25T00:45:49.000+02:00</time>
      </trkpt>
      <trkpt lat="46.61193777413017" lon="6.8674270973764235">
        <time>2013-04-25T00:45:49.000+02:00</time>
      </trkpt>
      <trkpt lat="46.61171269483407" lon="6.867390307063977">
        <time>2013-04-25T00:45:49.000+02:00</time>
      </trkpt>
      <trkpt lat="46.611442508229025" lon="6.8673278845733146">
        <time>2013-04-25T00:45:49.000+02:00</time>
      </trkpt>
      <trkpt lat="46.611172321586025" lon="6.867265462705738">
        <time>2013-04-25T00:45:49.000+02:00</time>
      </trkpt>
      <trkpt lat="46.61095630288412" lon="6.8672416318817895">
        <time>2013-04-25T00:45:49.000+02:00</time>
      </trkpt>
      <trkpt lat="46.61073122351658" lon="6.867204843007218">
        <time>2013-04-25T00:45:49.000+02:00</time>
      </trkpt>
      <trkpt lat="46.61054225613075" lon="6.86719378116538">
        <time>2013-04-25T00:45:49.000+02:00</time>
      </trkpt>
      <trkpt lat="46.6103981347706" lon="6.867156139343592">
        <time>2013-04-25T00:45:49.000+02:00</time>
      </trkpt>
      <trkpt lat="46.61023602272411" lon="6.867118687384985">
        <time>2013-04-25T00:45:49.000+02:00</time>
      </trkpt>
      <trkpt lat="46.610064849989925" lon="6.867068277592394">
        <time>2013-04-25T00:45:49.000+02:00</time>
      </trkpt>
      <trkpt lat="46.60980333177609" lon="6.866940499597629">
        <time>2013-04-25T00:45:49.000+02:00</time>
      </trkpt>
      <trkpt lat="46.609523757374234" lon="6.866799859834846">
        <time>2013-04-25T00:45:49.000+02:00</time>
      </trkpt>
      <trkpt lat="46.609208332215914" lon="6.866685706525374">
        <time>2013-04-25T00:45:49.000+02:00</time>
      </trkpt>
      <trkpt lat="46.608865855532514" lon="6.866558786700136">
        <time>2013-04-25T00:45:49.000+02:00</time>
      </trkpt>
      <trkpt lat="46.6084693412699" lon="6.86641938562518">
        <time>2013-04-25T00:45:49.000+02:00</time>
      </trkpt>
      <trkpt lat="46.60815430824051" lon="6.866383551358907">
        <time>2013-04-25T00:45:49.000+02:00</time>
      </trkpt>
      <trkpt lat="46.60791130330996" lon="6.866360010241922">
        <time>2013-04-25T00:45:49.000+02:00</time>
      </trkpt>
      <trkpt lat="46.607793644228224" lon="6.8662176688170815">
        <time>2013-04-25T00:45:49.000+02:00</time>
      </trkpt>
      <trkpt lat="46.60760290937595" lon="6.865854198903955">
        <time>2013-04-25T00:45:49.000+02:00</time>
      </trkpt>
      <trkpt lat="46.60740383314075" lon="6.865621349167273">
        <time>2013-04-25T00:45:49.000+02:00</time>
      </trkpt>
      <trkpt lat="46.607132662672605" lon="6.865363157678496">
        <time>2013-04-25T00:45:49.000+02:00</time>
      </trkpt>
      <trkpt lat="46.60697009120875" lon="6.865234348320698">
        <time>2013-04-25T00:45:49.000+02:00</time>
      </trkpt>
      <trkpt lat="46.60672682381059" lon="6.865158604525845">
        <time>2013-04-25T00:45:49.000+02:00</time>
      </trkpt>
      <trkpt lat="46.60652925417325" lon="6.865225958039217">
        <time>2013-04-25T00:45:49.000+02:00</time>
      </trkpt>
      <trkpt lat="46.60635886712212" lon="6.865332181675499">
        <time>2013-04-25T00:45:49.000+02:00</time>
      </trkpt>
      <trkpt lat="46.60612597124926" lon="6.865530433969978">
        <time>2013-04-25T00:45:49.000+02:00</time>
      </trkpt>
      <trkpt lat="46.60588414518237" lon="6.865741831498019">
        <time>2013-04-25T00:45:49.000+02:00</time>
      </trkpt>
      <trkpt lat="46.605669566585036" lon="6.866005149422009">
        <time>2013-04-25T00:45:49.000+02:00</time>
      </trkpt>
      <trkpt lat="46.605535029252515" lon="6.866084885352177">
        <time>2013-04-25T00:45:49.000+02:00</time>
      </trkpt>
      <trkpt lat="46.605426627007645" lon="6.865994662858004">
        <time>2013-04-25T00:45:49.000+02:00</time>
      </trkpt>
      <trkpt lat="46.60526307393618" lon="6.86567007962446">
        <time>2013-04-25T00:45:49.000+02:00</time>
      </trkpt>
      <trkpt lat="46.60508172586426" lon="6.865384843661129">
        <time>2013-04-25T00:45:49.000+02:00</time>
      </trkpt>
      <trkpt lat="46.60480996472308" lon="6.865009199802433">
        <time>2013-04-25T00:45:49.000+02:00</time>
      </trkpt>
      <trkpt lat="46.604492963175474" lon="6.864581829692705">
        <time>2013-04-25T00:45:49.000+02:00</time>
      </trkpt>
      <trkpt lat="46.60433905793682" lon="6.864387676143117">
        <time>2013-04-25T00:45:49.000+02:00</time>
      </trkpt>
      <trkpt lat="46.60408607232409" lon="6.864168469169937">
        <time>2013-04-25T00:45:49.000+02:00</time>
      </trkpt>
      <trkpt lat="46.60377885147296" lon="6.8638976308234145">
        <time>2013-04-25T00:45:49.000+02:00</time>
      </trkpt>
      <trkpt lat="46.60358896371706" lon="6.86370386332973">
        <time>2013-04-25T00:45:49.000+02:00</time>
      </trkpt>
      <trkpt lat="46.60347156424056" lon="6.863613744250594">
        <time>2013-04-25T00:45:49.000+02:00</time>
      </trkpt>
      <trkpt lat="46.603129149786" lon="6.863499908529996">
        <time>2013-04-25T00:45:49.000+02:00</time>
      </trkpt>
      <trkpt lat="46.60303932790986" lon="6.863526965122744">
        <time>2013-04-25T00:45:49.000+02:00</time>
      </trkpt>
      <trkpt lat="46.60290623809364" lon="6.863893828959202">
        <time>2013-04-25T00:45:49.000+02:00</time>
      </trkpt>
      <trkpt lat="46.60270190656167" lon="6.864405015613051">
        <time>2013-04-25T00:45:49.000+02:00</time>
      </trkpt>
      <trkpt lat="46.60248818386171" lon="6.864837987197977">
        <time>2013-04-25T00:45:49.000+02:00</time>
      </trkpt>
      <trkpt lat="46.6021397915999" lon="6.865324586150663">
        <time>2013-04-25T00:45:49.000+02:00</time>
      </trkpt>
      <trkpt lat="46.601567888564034" lon="6.86608762240574">
        <time>2013-04-25T00:46:49.000+02:00</time>
      </trkpt>
      <trkpt lat="46.601433678334416" lon="6.8662326061494205">
        <time>2013-04-25T00:46:49.000+02:00</time>
      </trkpt>
      <trkpt lat="46.60113787886789" lon="6.8664445517707">
        <time>2013-04-25T00:46:49.000+02:00</time>
      </trkpt>
      <trkpt lat="46.60091332239468" lon="6.8665121783764285">
        <time>2013-04-25T00:46:49.000+02:00</time>
      </trkpt>
      <trkpt lat="46.60061765315289" lon="6.866750221664821">
        <time>2013-04-25T00:46:49.000+02:00</time>
      </trkpt>
      <trkpt lat="46.60056400796407" lon="6.866816043935324">
        <time>2013-04-25T00:46:49.000+02:00</time>
      </trkpt>
      <trkpt lat="46.60053728339869" lon="6.8668685309178255">
        <time>2013-04-25T00:46:49.000+02:00</time>
      </trkpt>
      <trkpt lat="46.600582848291644" lon="6.8669855121158365">
        <time>2013-04-25T00:46:49.000+02:00</time>
      </trkpt>
      <trkpt lat="46.6007279497621" lon="6.867218906317423">
        <time>2013-04-25T00:46:49.000+02:00</time>
      </trkpt>
      <trkpt lat="46.60083674290003" lon="6.867387427454742">
        <time>2013-04-25T00:46:49.000+02:00</time>
      </trkpt>
      <trkpt lat="46.601100088182186" lon="6.867880607001466">
        <time>2013-04-25T00:46:49.000+02:00</time>
      </trkpt>
      <trkpt lat="46.60121852786555" lon="6.868179543599335">
        <time>2013-04-25T00:46:49.000+02:00</time>
      </trkpt>
      <trkpt lat="46.60141916292891" lon="6.86872559563021">
        <time>2013-04-25T00:46:49.000+02:00</time>
      </trkpt>
      <trkpt lat="46.60162833507816" lon="6.869180201207302">
        <time>2013-04-25T00:46:49.000+02:00</time>
      </trkpt>
      <trkpt lat="46.60180074340342" lon="6.869478577024108">
        <time>2013-04-25T00:46:49.000+02:00</time>
      </trkpt>
      <trkpt lat="46.6020638195896" lon="6.869919571654169">
        <time>2013-04-25T00:46:49.000+02:00</time>
      </trkpt>
      <trkpt lat="46.602291042614496" lon="6.870387049734235">
        <time>2013-04-25T00:46:49.000+02:00</time>
      </trkpt>
      <trkpt lat="46.60244591152031" lon="6.870776978935845">
        <time>2013-04-25T00:46:49.000+02:00</time>
      </trkpt>
      <trkpt lat="46.6026553997656" lon="6.8712968566353565">
        <time>2013-04-25T00:46:49.000+02:00</time>
      </trkpt>
      <trkpt lat="46.60273752498786" lon="6.871530929927527">
        <time>2013-04-25T00:46:49.000+02:00</time>
      </trkpt>
      <trkpt lat="46.60271189999844" lon="6.871805285861307">
        <time>2013-04-25T00:46:49.000+02:00</time>
      </trkpt>
      <trkpt lat="46.60270432980023" lon="6.8720925046753285">
        <time>2013-04-25T00:46:49.000+02:00</time>
      </trkpt>
      <trkpt lat="46.602616124410545" lon="6.872445824426512">
        <time>2013-04-25T00:46:49.000+02:00</time>
      </trkpt>
      <trkpt lat="46.602393893153334" lon="6.872983265858789">
        <time>2013-04-25T00:46:49.000+02:00</time>
      </trkpt>
      <trkpt lat="46.60223443297222" lon="6.873480893562422">
        <time>2013-04-25T00:46:49.000+02:00</time>
      </trkpt>
      <trkpt lat="46.60213819621405" lon="6.874030066566473">
        <time>2013-04-25T00:46:49.000+02:00</time>
      </trkpt>
      <trkpt lat="46.60211262971662" lon="6.874317469266789">
        <time>2013-04-25T00:46:49.000+02:00</time>
      </trkpt>
      <trkpt lat="46.602196489188174" lon="6.874903921987085">
        <time>2013-04-25T00:46:49.000+02:00</time>
      </trkpt>
      <trkpt lat="46.60229801444802" lon="6.875424934510826">
        <time>2013-04-25T00:46:49.000+02:00</time>
      </trkpt>
      <trkpt lat="46.60227270181493" lon="6.87576454150921">
        <time>2013-04-25T00:46:49.000+02:00</time>
      </trkpt>
      <trkpt lat="46.60221898708872" lon="6.875817305844913">
        <time>2013-04-25T00:46:49.000+02:00</time>
      </trkpt>
      <trkpt lat="46.602093566867666" lon="6.875923020908993">
        <time>2013-04-25T00:46:49.000+02:00</time>
      </trkpt>
      <trkpt lat="46.602048783096166" lon="6.875962640595005">
        <time>2013-04-25T00:46:49.000+02:00</time>
      </trkpt>
      <trkpt lat="46.60193248669916" lon="6.876094363551266">
        <time>2013-04-25T00:46:49.000+02:00</time>
      </trkpt>
      <trkpt lat="46.601834116554606" lon="6.876212848414528">
        <time>2013-04-25T00:46:49.000+02:00</time>
      </trkpt>
      <trkpt lat="46.60156560589426" lon="6.876489715540066">
        <time>2013-04-25T00:46:49.000+02:00</time>
      </trkpt>
      <trkpt lat="46.60127010851214" lon="6.876766859553591">
        <time>2013-04-25T00:46:49.000+02:00</time>
      </trkpt>
      <trkpt lat="46.60102838995036" lon="6.877004289364019">
        <time>2013-04-25T00:46:49.000+02:00</time>
      </trkpt>
      <trkpt lat="46.60083184014981" lon="6.877280403437201">
        <time>2013-04-25T00:46:49.000+02:00</time>
      </trkpt>
      <trkpt lat="46.600671399347675" lon="6.877582244473182">
        <time>2013-04-25T00:46:49.000+02:00</time>
      </trkpt>
      <trkpt lat="46.60054713143639" lon="6.8779228634608565">
        <time>2013-04-25T00:46:49.000+02:00</time>
      </trkpt>
      <trkpt lat="46.60045852360665" lon="6.878197856076004">
        <time>2013-04-25T00:46:49.000+02:00</time>
      </trkpt>
      <trkpt lat="46.6003962607662" lon="6.8783420632337515">
        <time>2013-04-25T00:46:49.000+02:00</time>
      </trkpt>
      <trkpt lat="46.600324938361275" lon="6.878473312423483">
        <time>2013-04-25T00:46:49.000+02:00</time>
      </trkpt>
      <trkpt lat="46.60023543304572" lon="6.878565595458948">
        <time>2013-04-25T00:46:49.000+02:00</time>
      </trkpt>
      <trkpt lat="46.600109946252665" lon="6.878658249770735">
        <time>2013-04-25T00:46:49.000+02:00</time>
      </trkpt>
      <trkpt lat="46.59994860597835" lon="6.878777376111649">
        <time>2013-04-25T00:46:49.000+02:00</time>
      </trkpt>
      <trkpt lat="46.59982324698193" lon="6.878896130321367">
        <time>2013-04-25T00:46:49.000+02:00</time>
      </trkpt>
      <trkpt lat="46.59970707511595" lon="6.879053942382213">
        <time>2013-04-25T00:46:49.000+02:00</time>
      </trkpt>
      <trkpt lat="46.5995819716264" lon="6.879224896950293">
        <time>2013-04-25T00:46:49.000+02:00</time>
      </trkpt>
      <trkpt lat="46.59947479465521" lon="6.879382614828179">
        <time>2013-04-25T00:46:49.000+02:00</time>
      </trkpt>
      <trkpt lat="46.599403598871746" lon="6.879539961091509">
        <time>2013-04-25T00:46:49.000+02:00</time>
      </trkpt>
      <trkpt lat="46.599350713016" lon="6.879762373133856">
        <time>2013-04-25T00:46:49.000+02:00</time>
      </trkpt>
      <trkpt lat="46.59933393584956" lon="6.880010514694508">
        <time>2013-04-25T00:46:49.000+02:00</time>
      </trkpt>
      <trkpt lat="46.599343888876405" lon="6.880206176912925">
        <time>2013-04-25T00:46:49.000+02:00</time>
      </trkpt>
      <trkpt lat="46.59933604228993" lon="6.88044117538504">
        <time>2013-04-25T00:46:49.000+02:00</time>
      </trkpt>
      <trkpt lat="46.599310395846786" lon="6.8807155098619655">
        <time>2013-04-25T00:46:49.000+02:00</time>
      </trkpt>
      <trkpt lat="46.59926650304942" lon="6.880937827858303">
        <time>2013-04-25T00:46:49.000+02:00</time>
      </trkpt>
      <trkpt lat="46.5992139330692" lon="6.881225489451611">
        <time>2013-04-25T00:46:49.000+02:00</time>
      </trkpt>
      <trkpt lat="46.599169657100305" lon="6.881369504924994">
        <time>2013-04-25T00:46:49.000+02:00</time>
      </trkpt>
      <trkpt lat="46.599116512961096" lon="6.8815397131275144">
        <time>2013-04-25T00:46:49.000+02:00</time>
      </trkpt>
      <trkpt lat="46.5990543095516" lon="6.881696963124065">
        <time>2013-04-25T00:46:49.000+02:00</time>
      </trkpt>
      <trkpt lat="46.59899223321212" lon="6.881880313245781">
        <time>2013-04-25T00:46:49.000+02:00</time>
      </trkpt>
      <trkpt lat="46.59893034743392" lon="6.882102813632837">
        <time>2013-04-25T00:46:49.000+02:00</time>
      </trkpt>
      <trkpt lat="46.5988861975529" lon="6.882272928070605">
        <time>2013-04-25T00:46:49.000+02:00</time>
      </trkpt>
      <trkpt lat="46.59883336993303" lon="6.88250838552343">
        <time>2013-04-25T00:46:49.000+02:00</time>
      </trkpt>
      <trkpt lat="46.59877154647202" lon="6.8827439347307156">
        <time>2013-04-25T00:46:49.000+02:00</time>
      </trkpt>
      <trkpt lat="46.59864650096419" lon="6.882927927977017">
        <time>2013-04-25T00:46:49.000+02:00</time>
      </trkpt>
      <trkpt lat="46.598511761201934" lon="6.882968461107059">
        <time>2013-04-25T00:46:49.000+02:00</time>
      </trkpt>
      <trkpt lat="46.598358713131894" lon="6.882943927913946">
        <time>2013-04-25T00:46:49.000+02:00</time>
      </trkpt>
      <trkpt lat="46.59823284168276" lon="6.8829582684923345">
        <time>2013-04-25T00:46:49.000+02:00</time>
      </trkpt>
      <trkpt lat="46.598107097262016" lon="6.882998709066388">
        <time>2013-04-25T00:46:49.000+02:00</time>
      </trkpt>
      <trkpt lat="46.59797229396098" lon="6.883026191617182">
        <time>2013-04-25T00:46:49.000+02:00</time>
      </trkpt>
      <trkpt lat="46.59785548136277" lon="6.883053489709242">
        <time>2013-04-25T00:46:49.000+02:00</time>
      </trkpt>
      <trkpt lat="46.59776546430251" lon="6.883041361367834">
        <time>2013-04-25T00:46:49.000+02:00</time>
      </trkpt>
      <trkpt lat="46.59769343795098" lon="6.88302904873742">
        <time>2013-04-25T00:46:49.000+02:00</time>
      </trkpt>
      <trkpt lat="46.597603293860594" lon="6.8829908206533075">
        <time>2013-04-25T00:46:49.000+02:00</time>
      </trkpt>
      <trkpt lat="46.59752208159222" lon="6.882939450629249">
        <time>2013-04-25T00:46:49.000+02:00</time>
      </trkpt>
      <trkpt lat="46.59742287858992" lon="6.882888265134617">
        <time>2013-04-25T00:46:49.000+02:00</time>
      </trkpt>
      <trkpt lat="46.59740482435208" lon="6.882875399647986">
        <time>2013-04-25T00:46:49.000+02:00</time>
      </trkpt>
      <trkpt lat="46.59729656243056" lon="6.8828112567440085">
        <time>2013-04-25T00:46:49.000+02:00</time>
      </trkpt>
      <trkpt lat="46.59719742291019" lon="6.882773121509146">
        <time>2013-04-25T00:46:49.000+02:00</time>
      </trkpt>
      <trkpt lat="46.596999080280504" lon="6.882683801694655">
        <time>2013-04-25T00:46:49.000+02:00</time>
      </trkpt>
      <trkpt lat="46.59684565079412" lon="6.882580971630836">
        <time>2013-04-25T00:46:49.000+02:00</time>
      </trkpt>
      <trkpt lat="46.59666523514819" lon="6.88247841891326">
        <time>2013-04-25T00:46:49.000+02:00</time>
      </trkpt>
      <trkpt lat="46.59651180547405" lon="6.882375590065675">
        <time>2013-04-25T00:46:49.000+02:00</time>
      </trkpt>
      <trkpt lat="46.59634051218687" lon="6.882299045585914">
        <time>2013-04-25T00:46:49.000+02:00</time>
      </trkpt>
      <trkpt lat="46.5961510373212" lon="6.882183537506444">
        <time>2013-04-25T00:46:49.000+02:00</time>
      </trkpt>
      <trkpt lat="46.59597093938848" lon="6.8821462350047735">
        <time>2013-04-25T00:46:49.000+02:00</time>
      </trkpt>
      <trkpt lat="46.5958539361578" lon="6.882134385524341">
        <time>2013-04-25T00:46:49.000+02:00</time>
      </trkpt>
      <trkpt lat="46.59558420271994" lon="6.88216325365919">
        <time>2013-04-25T00:46:49.000+02:00</time>
      </trkpt>
      <trkpt lat="46.59538655932547" lon="6.882217481856735">
        <time>2013-04-25T00:46:49.000+02:00</time>
      </trkpt>
      <trkpt lat="46.59536933174779" lon="6.882374258890775">
        <time>2013-04-25T00:46:49.000+02:00</time>
      </trkpt>
      <trkpt lat="46.59541462643517" lon="6.882439044449913">
        <time>2013-04-25T00:46:49.000+02:00</time>
      </trkpt>
      <trkpt lat="46.59559555060993" lon="6.882645990069253">
        <time>2013-04-25T00:46:49.000+02:00</time>
      </trkpt>
      <trkpt lat="46.59564984049818" lon="6.882710683912514">
        <time>2013-04-25T00:46:49.000+02:00</time>
      </trkpt>
      <trkpt lat="46.59585794080864" lon="6.882956503265711">
        <time>2013-04-25T00:46:49.000+02:00</time>
      </trkpt>
      <trkpt lat="46.59608415827733" lon="6.883228239330388">
        <time>2013-04-25T00:46:49.000+02:00</time>
      </trkpt>
      <trkpt lat="46.59631898968547" lon="6.883421587977876">
        <time>2013-04-25T00:46:49.000+02:00</time>
      </trkpt>
      <trkpt lat="46.59652721532785" lon="6.883693512405286">
        <time>2013-04-25T00:46:49.000+02:00</time>
      </trkpt>
      <trkpt lat="46.59678105105997" lon="6.88409547601453">
        <time>2013-04-25T00:46:49.000+02:00</time>
      </trkpt>
      <trkpt lat="46.596926307593584" lon="6.884368048942239">
        <time>2013-04-25T00:46:49.000+02:00</time>
      </trkpt>
      <trkpt lat="46.597008659301686" lon="6.884654316371091">
        <time>2013-04-25T00:46:49.000+02:00</time>
      </trkpt>
      <trkpt lat="46.597145172300905" lon="6.88497918299988">
        <time>2013-04-25T00:46:49.000+02:00</time>
      </trkpt>
      <trkpt lat="46.59722688985413" lon="6.885134954298861">
        <time>2013-04-25T00:46:49.000+02:00</time>
      </trkpt>
      <trkpt lat="46.597408315035565" lon="6.88544631478311">
        <time>2013-04-25T00:46:49.000+02:00</time>
      </trkpt>
      <trkpt lat="46.597517334082355" lon="6.885667061795392">
        <time>2013-04-25T00:46:49.000+02:00</time>
      </trkpt>
      <trkpt lat="46.59779934873137" lon="6.886316716288999">
        <time>2013-04-25T00:46:49.000+02:00</time>
      </trkpt>
      <trkpt lat="46.598063053640004" lon="6.886901310448075">
        <time>2013-04-25T00:46:49.000+02:00</time>
      </trkpt>
      <trkpt lat="46.59835380462184" lon="6.8874986861247605">
        <time>2013-04-25T00:46:49.000+02:00</time>
      </trkpt>
      <trkpt lat="46.59841727607406" lon="6.887602447054446">
        <time>2013-04-25T00:46:49.000+02:00</time>
      </trkpt>
      <trkpt lat="46.59863385744717" lon="6.887743805106141">
        <time>2013-04-25T00:46:49.000+02:00</time>
      </trkpt>
      <trkpt lat="46.598769039697544" lon="6.887794635147475">
        <time>2013-04-25T00:46:49.000+02:00</time>
      </trkpt>
      <trkpt lat="46.598967315349654" lon="6.887870926366521">
        <time>2013-04-25T00:46:49.000+02:00</time>
      </trkpt>
      <trkpt lat="46.599138793708285" lon="6.88798664305167">
        <time>2013-04-25T00:46:49.000+02:00</time>
      </trkpt>
      <trkpt lat="46.59929253293699" lon="6.888154744411359">
        <time>2013-04-25T00:46:49.000+02:00</time>
      </trkpt>
      <trkpt lat="46.599365376591194" lon="6.888336718657123">
        <time>2013-04-25T00:46:49.000+02:00</time>
      </trkpt>
      <trkpt lat="46.59942928747681" lon="6.888531835004781">
        <time>2013-04-25T00:46:49.000+02:00</time>
      </trkpt>
      <trkpt lat="46.59948470548566" lon="6.888831445996377">
        <time>2013-04-25T00:46:49.000+02:00</time>
      </trkpt>
      <trkpt lat="46.59958654378042" lon="6.889430760924856">
        <time>2013-04-25T00:46:49.000+02:00</time>
      </trkpt>
      <trkpt lat="46.59962396870608" lon="6.889730555816584">
        <time>2013-04-25T00:46:49.000+02:00</time>
      </trkpt>
      <trkpt lat="46.599725363513954" lon="6.890238520968531">
        <time>2013-04-25T00:46:49.000+02:00</time>
      </trkpt>
      <trkpt lat="46.599799268913706" lon="6.890642357093221">
        <time>2013-04-25T00:46:49.000+02:00</time>
      </trkpt>
      <trkpt lat="46.59982769529117" lon="6.890942244855077">
        <time>2013-04-25T00:46:49.000+02:00</time>
      </trkpt>
      <trkpt lat="46.59988335723061" lon="6.891294062399229">
        <time>2013-04-25T00:46:49.000+02:00</time>
      </trkpt>
      <trkpt lat="46.599911969475656" lon="6.891633102399862">
        <time>2013-04-25T00:46:49.000+02:00</time>
      </trkpt>
      <trkpt lat="46.599913219682215" lon="6.891894111941145">
        <time>2013-04-25T00:46:49.000+02:00</time>
      </trkpt>
      <trkpt lat="46.5998874832061" lon="6.892155393449972">
        <time>2013-04-25T00:46:49.000+02:00</time>
      </trkpt>
      <trkpt lat="46.59983494734515" lon="6.89245609791247">
        <time>2013-04-25T00:46:49.000+02:00</time>
      </trkpt>
      <trkpt lat="46.599809147178654" lon="6.892704328323303">
        <time>2013-04-25T00:46:49.000+02:00</time>
      </trkpt>
      <trkpt lat="46.59983744339083" lon="6.892978116303407">
        <time>2013-04-25T00:46:49.000+02:00</time>
      </trkpt>
      <trkpt lat="46.599893659963705" lon="6.893447390275437">
        <time>2013-04-25T00:46:49.000+02:00</time>
      </trkpt>
      <trkpt lat="46.599876479239526" lon="6.893617227264003">
        <time>2013-04-25T00:46:49.000+02:00</time>
      </trkpt>
      <trkpt lat="46.59988653345375" lon="6.893838994895885">
        <time>2013-04-25T00:46:49.000+02:00</time>
      </trkpt>
      <trkpt lat="46.59988672026505" lon="6.89387814631574">
        <time>2013-04-25T00:46:49.000+02:00</time>
      </trkpt>
      <trkpt lat="46.59992438241465" lon="6.894230147879093">
        <time>2013-04-25T00:46:49.000+02:00</time>
      </trkpt>
      <trkpt lat="46.59994355520166" lon="6.894477926526706">
        <time>2013-04-25T00:46:49.000+02:00</time>
      </trkpt>
      <trkpt lat="46.599936114358655" lon="6.894804278941354">
        <time>2013-04-25T00:46:49.000+02:00</time>
      </trkpt>
      <trkpt lat="46.59989238048277" lon="6.895065739514705">
        <time>2013-04-25T00:46:49.000+02:00</time>
      </trkpt>
      <trkpt lat="46.59978530581745" lon="6.895249527833025">
        <time>2013-04-25T00:46:49.000+02:00</time>
      </trkpt>
      <trkpt lat="46.59974951068739" lon="6.895289039707652">
        <time>2013-04-25T00:46:49.000+02:00</time>
      </trkpt>
      <trkpt lat="46.599436597513815" lon="6.8956967556238915">
        <time>2013-04-25T00:46:49.000+02:00</time>
      </trkpt>
      <trkpt lat="46.5992937885124" lon="6.895933102603637">
        <time>2013-04-25T00:46:49.000+02:00</time>
      </trkpt>
      <trkpt lat="46.59924924588089" lon="6.896024904971978">
        <time>2013-04-25T00:46:49.000+02:00</time>
      </trkpt>
      <trkpt lat="46.59929465682618" lon="6.896115807265653">
        <time>2013-04-25T00:46:49.000+02:00</time>
      </trkpt>
      <trkpt lat="46.59953815172904" lon="6.896243881376095">
        <time>2013-04-25T00:46:49.000+02:00</time>
      </trkpt>
      <trkpt lat="46.599799823156474" lon="6.896410928103042">
        <time>2013-04-25T00:46:49.000+02:00</time>
      </trkpt>
      <trkpt lat="46.600205729954126" lon="6.896641790536232">
        <time>2013-04-25T00:46:49.000+02:00</time>
      </trkpt>
      <trkpt lat="46.60057546903332" lon="6.896833863978407">
        <time>2013-04-25T00:46:49.000+02:00</time>
      </trkpt>
      <trkpt lat="46.600999489492864" lon="6.897090654706271">
        <time>2013-04-25T00:46:49.000+02:00</time>
      </trkpt>
      <trkpt lat="46.60135129894881" lon="6.897295964465327">
        <time>2013-04-25T00:46:49.000+02:00</time>
      </trkpt>
      <trkpt lat="46.60169411266375" lon="6.897501366659401">
        <time>2013-04-25T00:46:49.000+02:00</time>
      </trkpt>
      <trkpt lat="46.60198276831617" lon="6.897668156901318">
        <time>2013-04-25T00:46:49.000+02:00</time>
      </trkpt>
      <trkpt lat="46.602154916641716" lon="6.897927472347919">
        <time>2013-04-25T00:46:49.000+02:00</time>
      </trkpt>
      <trkpt lat="46.602219490612406" lon="6.898266171528949">
        <time>2013-04-25T00:46:49.000+02:00</time>
      </trkpt>
      <trkpt lat="46.60236477494758" lon="6.898551860956429">
        <time>2013-04-25T00:46:49.000+02:00</time>
      </trkpt>
      <trkpt lat="46.602409936968236" lon="6.898590566253579">
        <time>2013-04-25T00:46:49.000+02:00</time>
      </trkpt>
      <trkpt lat="46.60279778686508" lon="6.898808584080667">
        <time>2013-04-25T00:46:49.000+02:00</time>
      </trkpt>
      <trkpt lat="46.60289685929151" lon="6.898833701428771">
        <time>2013-04-25T00:46:49.000+02:00</time>
      </trkpt>
      <trkpt lat="46.60329234685061" lon="6.89876450483403">
        <time>2013-04-25T00:46:49.000+02:00</time>
      </trkpt>
      <trkpt lat="46.60357083289513" lon="6.89868342028362">
        <time>2013-04-25T00:46:49.000+02:00</time>
      </trkpt>
      <trkpt lat="46.60381432486187" lon="6.89881151606177">
        <time>2013-04-25T00:46:49.000+02:00</time>
      </trkpt>
      <trkpt lat="46.60404925310021" lon="6.899031062904772">
        <time>2013-04-25T00:46:49.000+02:00</time>
      </trkpt>
      <trkpt lat="46.604302233295876" lon="6.899263484238131">
        <time>2013-04-25T00:46:49.000+02:00</time>
      </trkpt>
      <trkpt lat="46.604446837219044" lon="6.899405619960879">
        <time>2013-04-25T00:46:49.000+02:00</time>
      </trkpt>
      <trkpt lat="46.6046274840439" lon="6.899560450341737">
        <time>2013-04-25T00:46:49.000+02:00</time>
      </trkpt>
      <trkpt lat="46.60479919689041" lon="6.899728422824519">
        <time>2013-04-25T00:46:49.000+02:00</time>
      </trkpt>
      <trkpt lat="46.604944046546386" lon="6.899922767894207">
        <time>2013-04-25T00:46:49.000+02:00</time>
      </trkpt>
      <trkpt lat="46.60512518508301" lon="6.90018201537419">
        <time>2013-04-25T00:46:49.000+02:00</time>
      </trkpt>
      <trkpt lat="46.60527915237425" lon="6.900402377096658">
        <time>2013-04-25T00:46:49.000+02:00</time>
      </trkpt>
      <trkpt lat="46.60544248355273" lon="6.900700961745061">
        <time>2013-04-25T00:46:49.000+02:00</time>
      </trkpt>
      <trkpt lat="46.60561499366536" lon="6.9010386145934035">
        <time>2013-04-25T00:46:49.000+02:00</time>
      </trkpt>
      <trkpt lat="46.605733591987054" lon="6.901389856261099">
        <time>2013-04-25T00:46:49.000+02:00</time>
      </trkpt>
      <trkpt lat="46.60572613135468" lon="6.901716242645212">
        <time>2013-04-25T00:46:49.000+02:00</time>
      </trkpt>
      <trkpt lat="46.60571879245125" lon="6.902068732718125">
        <time>2013-04-25T00:46:49.000+02:00</time>
      </trkpt>
      <trkpt lat="46.605729259315495" lon="6.902381889108208">
        <time>2013-04-25T00:46:49.000+02:00</time>
      </trkpt>
      <trkpt lat="46.60574113387164" lon="6.902995239214479">
        <time>2013-04-25T00:46:49.000+02:00</time>
      </trkpt>
      <trkpt lat="46.605787212504445" lon="6.90322972923806">
        <time>2013-04-25T00:46:49.000+02:00</time>
      </trkpt>
      <trkpt lat="46.605969444288014" lon="6.903723926952185">
        <time>2013-04-25T00:46:49.000+02:00</time>
      </trkpt>
      <trkpt lat="46.606179331868375" lon="6.904361434054084">
        <time>2013-04-25T00:46:49.000+02:00</time>
      </trkpt>
      <trkpt lat="46.60626163331611" lon="6.904647780853534">
        <time>2013-04-25T00:46:49.000+02:00</time>
      </trkpt>
      <trkpt lat="46.606299872063815" lon="6.905130351709017">
        <time>2013-04-25T00:46:49.000+02:00</time>
      </trkpt>
      <trkpt lat="46.6062921569393" lon="6.905404532869025">
        <time>2013-04-25T00:46:49.000+02:00</time>
      </trkpt>
      <trkpt lat="46.60641147259282" lon="6.905912413229678">
        <time>2013-04-25T00:46:49.000+02:00</time>
      </trkpt>
      <trkpt lat="46.60669318925076" lon="6.906523123603755">
        <time>2013-04-25T00:46:49.000+02:00</time>
      </trkpt>
      <trkpt lat="46.60687473825619" lon="6.90687376677154">
        <time>2013-04-25T00:46:49.000+02:00</time>
      </trkpt>
      <trkpt lat="46.60708260406224" lon="6.90708057334811">
        <time>2013-04-25T00:46:49.000+02:00</time>
      </trkpt>
      <trkpt lat="46.607344380978915" lon="6.907273800330353">
        <time>2013-04-25T00:46:49.000+02:00</time>
      </trkpt>
      <trkpt lat="46.607597162194295" lon="6.907467117301588">
        <time>2013-04-25T00:46:49.000+02:00</time>
      </trkpt>
      <trkpt lat="46.60774181655819" lon="6.90762233598252">
        <time>2013-04-25T00:46:49.000+02:00</time>
      </trkpt>
      <trkpt lat="46.60800432050716" lon="6.907972197304861">
        <time>2013-04-25T00:46:49.000+02:00</time>
      </trkpt>
      <trkpt lat="46.60833045764028" lon="6.908465023959628">
        <time>2013-04-25T00:46:49.000+02:00</time>
      </trkpt>
      <trkpt lat="46.60871998398777" lon="6.909048609785243">
        <time>2013-04-25T00:46:49.000+02:00</time>
      </trkpt>
      <trkpt lat="46.6087020991728" lon="6.909071627582323">
        <time>2013-04-25T00:46:49.000+02:00</time>
      </trkpt>
      <trkpt lat="46.60892789120861" lon="6.909265221270442">
        <time>2013-04-25T00:46:49.000+02:00</time>
      </trkpt>
      <trkpt lat="46.60906418278972" lon="6.909557589770931">
        <time>2013-04-25T00:46:49.000+02:00</time>
      </trkpt>
      <trkpt lat="46.60924545047687" lon="6.909849521111924">
        <time>2013-04-25T00:46:49.000+02:00</time>
      </trkpt>
      <trkpt lat="46.60933646165172" lon="6.910077067334504">
        <time>2013-04-25T00:46:49.000+02:00</time>
      </trkpt>
      <trkpt lat="46.60944965884595" lon="6.910239131201282">
        <time>2013-04-25T00:46:49.000+02:00</time>
      </trkpt>
      <trkpt lat="46.60944971923996" lon="6.91025218399986">
        <time>2013-04-25T00:46:49.000+02:00</time>
      </trkpt>
    </trkseg>
  </trk>
</gpx>